Wetterdaten: Donnerstag, 01.11.2018
Datum Zeit Temp. Aussen Temp. o. S. +5cm Feuchte Auss Luftdruck Regen Sonnenschein Regendauer Solar Windben Empfang
01.11.2018 00:00 8,4 C 6,7 C 6,1 C 86 % 1009,8 hPa 0,0 l/m 0 min 0 min 0 W/m 0,0 km/h (0 Bft) 100,00 %
01.11.2018 00:02 8,4 C 6,7 C 6,1 C 86 % 1009,8 hPa 0,0 l/m 0 min 0 min 0 W/m 0,0 km/h (0 Bft) 100,00 %
01.11.2018 00:04 8,4 C 6,7 C 6,1 C 86 % 1009,9 hPa 0,0 l/m 0 min 0 min 0 W/m 0,0 km/h (0 Bft) 100,00 %
01.11.2018 00:07 8,3 C 7,2 C 6,1 C 86 % 1009,9 hPa 0,0 l/m 0 min 0 min 0 W/m 0,0 km/h (0 Bft) 100,00 %
01.11.2018 00:08 8,3 C 7,2 C 6,1 C 86 % 1009,9 hPa 0,0 l/m 0 min 0 min 0 W/m 3,2 km/h (1 Bft) 100,00 %
01.11.2018 00:10 8,3 C 7,2 C 6,1 C 86 % 1010,0 hPa 0,0 l/m 0 min 0 min 0 W/m 3,2 km/h (1 Bft) 100,00 %
01.11.2018 00:12 8,2 C 7,2 C 6,1 C 86 % 1010,0 hPa 0,0 l/m 0 min 0 min 0 W/m 3,2 km/h (1 Bft) 100,00 %
01.11.2018 00:14 8,2 C 7,2 C 6,1 C 86 % 1010,0 hPa 0,0 l/m 0 min 0 min 0 W/m 3,2 km/h (1 Bft) 99,57 %
01.11.2018 00:16 8,2 C 7,2 C 6,1 C 87 % 1010,2 hPa 0,0 l/m 0 min 0 min 0 W/m 3,2 km/h (1 Bft) 97,87 %
01.11.2018 00:18 8,2 C 7,2 C 6,1 C 87 % 1010,2 hPa 0,0 l/m 0 min 0 min 0 W/m 3,2 km/h (1 Bft) 100,00 %
01.11.2018 00:20 8,2 C 7,2 C 6,7 C 87 % 1010,2 hPa 0,0 l/m 0 min 0 min 0 W/m 3,2 km/h (1 Bft) 98,28 %
01.11.2018 00:22 8,1 C 7,2 C 6,7 C 87 % 1010,2 hPa 0,0 l/m 0 min 0 min 0 W/m 0,0 km/h (0 Bft) 100,00 %
01.11.2018 00:24 8,1 C 7,2 C 6,7 C 87 % 1010,2 hPa 0,0 l/m 0 min 0 min 0 W/m 0,0 km/h (0 Bft) 97,83 %
01.11.2018 00:26 8,1 C 7,2 C 6,7 C 87 % 1010,1 hPa 0,0 l/m 0 min 0 min 0 W/m 0,0 km/h (0 Bft) 95,74 %
01.11.2018 00:28 8,1 C 7,2 C 6,7 C 87 % 1010,0 hPa 0,0 l/m 0 min 0 min 0 W/m 0,0 km/h (0 Bft) 97,87 %
01.11.2018 00:30 8,1 C 6,7 C 6,7 C 87 % 1010,1 hPa 0,0 l/m 0 min 0 min 0 W/m 0,0 km/h (0 Bft) 95,74 %
01.11.2018 00:32 8,0 C 6,7 C 6,7 C 87 % 1010,0 hPa 0,0 l/m 0 min 0 min 0 W/m 0,0 km/h (0 Bft) 95,74 %
01.11.2018 00:34 8,0 C 6,7 C 6,1 C 87 % 1010,0 hPa 0,0 l/m 0 min 0 min 0 W/m 0,0 km/h (0 Bft) 95,74 %
01.11.2018 00:38 7,9 C 6,7 C 6,1 C 87 % 1009,9 hPa 0,0 l/m 0 min 0 min 0 W/m 0,0 km/h (0 Bft) 95,70 %
01.11.2018 00:40 7,9 C 6,7 C 6,1 C 87 % 1009,8 hPa 0,0 l/m 0 min 0 min 0 W/m 0,0 km/h (0 Bft) 95,74 %
01.11.2018 00:42 7,9 C 6,7 C 6,1 C 87 % 1009,7 hPa 0,0 l/m 0 min 0 min 0 W/m 0,0 km/h (0 Bft) 95,74 %
01.11.2018 00:44 7,9 C 6,7 C 6,1 C 87 % 1009,8 hPa 0,0 l/m 0 min 0 min 0 W/m 0,0 km/h (0 Bft) 93,62 %
01.11.2018 00:46 7,9 C 6,7 C 6,1 C 88 % 1009,8 hPa 0,0 l/m 0 min 0 min 0 W/m 0,0 km/h (0 Bft) 95,74 %
01.11.2018 00:48 7,9 C 6,7 C 6,1 C 88 % 1009,8 hPa 0,0 l/m 0 min 0 min 0 W/m 0,0 km/h (0 Bft) 95,65 %
01.11.2018 00:50 7,8 C 6,7 C 6,1 C 88 % 1009,7 hPa 0,0 l/m 0 min 0 min 0 W/m 0,0 km/h (0 Bft) 93,62 %
01.11.2018 00:52 7,8 C 6,7 C 6,1 C 88 % 1009,8 hPa 0,0 l/m 0 min 0 min 0 W/m 0,0 km/h (0 Bft) 95,74 %
01.11.2018 00:54 7,8 C 6,7 C 6,1 C 88 % 1009,7 hPa 0,0 l/m 0 min 0 min 0 W/m 0,0 km/h (0 Bft) 95,74 %
01.11.2018 00:56 7,8 C 6,7 C 6,1 C 88 % 1009,6 hPa 0,0 l/m 0 min 0 min 0 W/m 0,0 km/h (0 Bft) 97,87 %
01.11.2018 00:58 7,8 C 6,7 C 6,1 C 88 % 1009,5 hPa 0,0 l/m 0 min 0 min 0 W/m 0,0 km/h (0 Bft) 91,49 %
01.11.2018 01:00 7,8 C 6,7 C 6,1 C 88 % 1009,4 hPa 0,0 l/m 0 min 0 min 0 W/m 0,0 km/h (0 Bft) 95,65 %
01.11.2018 01:02 7,7 C 6,7 C 6,1 C 88 % 1009,4 hPa 0,0 l/m 0 min 0 min 0 W/m 0,0 km/h (0 Bft) 95,83 %
01.11.2018 01:04 7,7 C 6,7 C 6,1 C 88 % 1009,4 hPa 0,0 l/m 0 min 0 min 0 W/m 0,0 km/h (0 Bft) 93,62 %
01.11.2018 01:08 7,7 C 6,7 C 6,1 C 88 % 1009,3 hPa 0,0 l/m 0 min 0 min 0 W/m 0,0 km/h (0 Bft) 94,68 %
01.11.2018 01:10 7,7 C 6,7 C 6,1 C 88 % 1009,3 hPa 0,0 l/m 0 min 0 min 0 W/m 0,0 km/h (0 Bft) 95,65 %
01.11.2018 01:12 7,7 C 6,7 C 6,1 C 88 % 1009,3 hPa 0,0 l/m 0 min 0 min 0 W/m 0,0 km/h (0 Bft) 95,74 %
01.11.2018 01:14 7,7 C 6,7 C 6,1 C 88 % 1009,4 hPa 0,0 l/m 0 min 0 min 0 W/m 0,0 km/h (0 Bft) 91,49 %
01.11.2018 01:16 7,7 C 6,7 C 6,1 C 88 % 1009,4 hPa 0,0 l/m 0 min 0 min 0 W/m 0,0 km/h (0 Bft) 91,49 %
01.11.2018 01:18 7,7 C 6,7 C 6,1 C 88 % 1009,3 hPa 0,0 l/m 0 min 0 min 0 W/m 0,0 km/h (0 Bft) 93,62 %
01.11.2018 01:20 7,6 C 6,7 C 6,1 C 89 % 1009,4 hPa 0,0 l/m 0 min 0 min 0 W/m 0,0 km/h (0 Bft) 93,48 %
01.11.2018 01:22 7,6 C 6,7 C 6,1 C 89 % 1009,4 hPa 0,0 l/m 0 min 0 min 0 W/m 0,0 km/h (0 Bft) 95,74 %
01.11.2018 01:24 7,6 C 6,7 C 6,1 C 89 % 1009,5 hPa 0,0 l/m 0 min 0 min 0 W/m 0,0 km/h (0 Bft) 95,74 %
01.11.2018 01:26 7,6 C 6,7 C 6,1 C 89 % 1009,4 hPa 0,0 l/m 0 min 0 min 0 W/m 0,0 km/h (0 Bft) 95,74 %
01.11.2018 01:28 7,6 C 6,7 C 6,1 C 89 % 1009,5 hPa 0,0 l/m 0 min 0 min 0 W/m 0,0 km/h (0 Bft) 95,74 %
01.11.2018 01:30 7,6 C 6,7 C 6,1 C 89 % 1009,4 hPa 0,0 l/m 0 min 0 min 0 W/m 0,0 km/h (0 Bft) 93,62 %
01.11.2018 01:32 7,5 C 6,7 C 6,1 C 89 % 1009,4 hPa 0,0 l/m 0 min 0 min 0 W/m 3,2 km/h (1 Bft) 97,83 %
01.11.2018 01:34 7,5 C 6,7 C 6,1 C 89 % 1009,3 hPa 0,0 l/m 0 min 0 min 0 W/m 0,0 km/h (0 Bft) 97,87 %
01.11.2018 01:38 7,5 C 6,7 C 6,1 C 89 % 1009,5 hPa 0,0 l/m 0 min 0 min 0 W/m 3,2 km/h (1 Bft) 96,81 %
01.11.2018 01:40 7,5 C 6,7 C 6,7 C 89 % 1009,5 hPa 0,0 l/m 0 min 0 min 0 W/m 6,4 km/h (2 Bft) 97,87 %
01.11.2018 01:42 7,5 C 7,2 C 6,7 C 89 % 1009,5 hPa 0,0 l/m 0 min 0 min 0 W/m 6,4 km/h (2 Bft) 97,83 %
01.11.2018 01:44 7,5 C 7,2 C 6,7 C 89 % 1009,4 hPa 0,0 l/m 0 min 0 min 0 W/m 6,4 km/h (2 Bft) 97,87 %
01.11.2018 01:46 7,5 C 7,2 C 6,7 C 90 % 1009,4 hPa 0,0 l/m 0 min 0 min 0 W/m 9,7 km/h (2 Bft) 95,74 %
01.11.2018 01:48 7,5 C 7,2 C 6,7 C 90 % 1009,4 hPa 0,0 l/m 0 min 0 min 0 W/m 6,4 km/h (2 Bft) 95,74 %
01.11.2018 01:50 7,5 C 7,2 C 6,7 C 90 % 1009,5 hPa 0,0 l/m 0 min 0 min 0 W/m 6,4 km/h (2 Bft) 97,87 %
01.11.2018 01:52 7,5 C 7,2 C 6,7 C 90 % 1009,6 hPa 0,0 l/m 0 min 0 min 0 W/m 3,2 km/h (1 Bft) 97,87 %
01.11.2018 01:54 7,5 C 7,2 C 6,7 C 90 % 1009,7 hPa 0,0 l/m 0 min 0 min 0 W/m 9,7 km/h (2 Bft) 95,65 %
01.11.2018 01:56 7,5 C 7,2 C 6,7 C 90 % 1009,5 hPa 0,0 l/m 0 min 0 min 0 W/m 12,9 km/h (3 Bft) 97,87 %
01.11.2018 01:58 7,5 C 7,8 C 6,7 C 90 % 1009,5 hPa 0,0 l/m 0 min 0 min 0 W/m 6,4 km/h (2 Bft) 95,74 %
01.11.2018 02:00 7,6 C 7,8 C 6,7 C 90 % 1009,4 hPa 0,0 l/m 0 min 0 min 0 W/m 16,1 km/h (3 Bft) 95,74 %
01.11.2018 02:02 7,6 C 7,8 C 6,7 C 90 % 1009,5 hPa 0,0 l/m 0 min 0 min 0 W/m 9,7 km/h (2 Bft) 100,00 %
01.11.2018 02:04 7,6 C 7,8 C 6,7 C 90 % 1009,5 hPa 0,0 l/m 0 min 0 min 0 W/m 9,7 km/h (2 Bft) 100,00 %
01.11.2018 02:08 7,6 C 7,8 C 6,7 C 90 % 1009,5 hPa 0,0 l/m 0 min 0 min 0 W/m 9,7 km/h (2 Bft) 98,92 %
01.11.2018 02:10 7,6 C 7,8 C 6,7 C 90 % 1009,4 hPa 0,0 l/m 0 min 0 min 0 W/m 6,4 km/h (2 Bft) 100,00 %
01.11.2018 02:12 7,6 C 7,8 C 6,7 C 90 % 1009,5 hPa 0,0 l/m 0 min 0 min 0 W/m 9,7 km/h (2 Bft) 97,87 %
01.11.2018 02:14 7,7 C 7,8 C 6,7 C 90 % 1009,5 hPa 0,0 l/m 0 min 0 min 0 W/m 6,4 km/h (2 Bft) 100,00 %
01.11.2018 02:16 7,7 C 7,8 C 6,7 C 90 % 1009,5 hPa 0,0 l/m 0 min 0 min 0 W/m 6,4 km/h (2 Bft) 100,00 %
01.11.2018 02:18 7,7 C 7,8 C 6,7 C 90 % 1009,4 hPa 0,0 l/m 0 min 0 min 0 W/m 9,7 km/h (2 Bft) 100,00 %
01.11.2018 02:20 7,7 C 7,8 C 6,7 C 90 % 1009,4 hPa 0,0 l/m 0 min 0 min 0 W/m 6,4 km/h (2 Bft) 100,00 %
01.11.2018 02:22 7,7 C 7,8 C 6,7 C 90 % 1009,3 hPa 0,0 l/m 0 min 0 min 0 W/m 3,2 km/h (1 Bft) 100,00 %
01.11.2018 02:24 7,7 C 7,8 C 6,7 C 90 % 1009,4 hPa 0,0 l/m 0 min 0 min 0 W/m 6,4 km/h (2 Bft) 97,87 %
01.11.2018 02:26 7,7 C 7,8 C 6,7 C 90 % 1009,4 hPa 0,0 l/m 0 min 0 min 0 W/m 6,4 km/h (2 Bft) 100,00 %
01.11.2018 02:28 7,8 C 7,8 C 7,2 C 90 % 1009,5 hPa 0,0 l/m 0 min 0 min 0 W/m 9,7 km/h (2 Bft) 100,00 %
01.11.2018 02:30 7,8 C 7,8 C 7,2 C 90 % 1009,5 hPa 0,0 l/m 0 min 0 min 0 W/m 9,7 km/h (2 Bft) 100,00 %
01.11.2018 02:32 7,8 C 7,8 C 7,2 C 90 % 1009,5 hPa 0,0 l/m 0 min 0 min 0 W/m 9,7 km/h (2 Bft) 100,00 %
01.11.2018 02:34 7,8 C 7,8 C 7,2 C 90 % 1009,4 hPa 0,0 l/m 0 min 0 min 0 W/m 9,7 km/h (2 Bft) 100,00 %
01.11.2018 02:38 7,9 C 7,8 C 7,2 C 90 % 1009,6 hPa 0,0 l/m 0 min 0 min 0 W/m 9,7 km/h (2 Bft) 98,94 %
01.11.2018 02:40 7,9 C 7,8 C 7,2 C 89 % 1009,5 hPa 0,0 l/m 0 min 0 min 0 W/m 6,4 km/h (2 Bft) 100,00 %
01.11.2018 02:42 7,9 C 7,8 C 7,2 C 89 % 1009,4 hPa 0,0 l/m 0 min 0 min 0 W/m 6,4 km/h (2 Bft) 100,00 %
01.11.2018 02:44 7,9 C 7,8 C 7,2 C 89 % 1009,5 hPa 0,0 l/m 0 min 0 min 0 W/m 9,7 km/h (2 Bft) 97,87 %
01.11.2018 02:46 7,9 C 7,8 C 7,2 C 89 % 1009,4 hPa 0,0 l/m 0 min 0 min 0 W/m 9,7 km/h (2 Bft) 100,00 %
01.11.2018 02:48 7,9 C 7,8 C 7,2 C 89 % 1009,2 hPa 0,0 l/m 0 min 0 min 0 W/m 12,9 km/h (3 Bft) 100,00 %
01.11.2018 02:50 8,0 C 7,8 C 7,2 C 89 % 1009,3 hPa 0,0 l/m 0 min 0 min 0 W/m 9,7 km/h (2 Bft) 97,87 %
01.11.2018 02:52 8,0 C 7,8 C 7,2 C 89 % 1009,3 hPa 0,0 l/m 0 min 0 min 0 W/m 9,7 km/h (2 Bft) 100,00 %
01.11.2018 02:54 8,1 C 7,8 C 7,2 C 89 % 1009,1 hPa 0,0 l/m 0 min 0 min 0 W/m 9,7 km/h (2 Bft) 97,83 %
01.11.2018 02:56 8,1 C 7,8 C 7,2 C 89 % 1009,2 hPa 0,0 l/m 0 min 0 min 0 W/m 6,4 km/h (2 Bft) 95,74 %
01.11.2018 02:58 8,1 C 7,8 C 7,2 C 89 % 1009,2 hPa 0,0 l/m 0 min 0 min 0 W/m 6,4 km/h (2 Bft) 97,87 %
01.11.2018 03:00 8,1 C 7,8 C 7,2 C 88 % 1009,0 hPa 0,0 l/m 0 min 0 min 0 W/m 6,4 km/h (2 Bft) 97,87 %
01.11.2018 03:02 8,1 C 7,8 C 7,2 C 88 % 1009,2 hPa 0,0 l/m 0 min 0 min 0 W/m 6,4 km/h (2 Bft) 97,87 %
01.11.2018 03:04 8,1 C 7,8 C 7,2 C 88 % 1009,2 hPa 0,0 l/m 0 min 0 min 0 W/m 6,4 km/h (2 Bft) 97,87 %
01.11.2018 03:08 8,2 C 7,8 C 7,2 C 88 % 1009,1 hPa 0,0 l/m 0 min 0 min 0 W/m 9,7 km/h (2 Bft) 97,85 %
01.11.2018 03:10 8,2 C 8,3 C 7,2 C 88 % 1009,0 hPa 0,0 l/m 0 min 0 min 0 W/m 6,4 km/h (2 Bft) 97,87 %
01.11.2018 03:12 8,2 C 8,3 C 7,2 C 88 % 1009,0 hPa 0,0 l/m 0 min 0 min 0 W/m 6,4 km/h (2 Bft) 97,87 %
01.11.2018 03:14 8,2 C 8,3 C 7,2 C 88 % 1009,0 hPa 0,0 l/m 0 min 0 min 0 W/m 9,7 km/h (2 Bft) 97,87 %
01.11.2018 03:16 8,2 C 8,3 C 7,2 C 88 % 1009,0 hPa 0,0 l/m 0 min 0 min 0 W/m 12,9 km/h (3 Bft) 97,83 %
01.11.2018 03:18 8,2 C 8,3 C 7,2 C 88 % 1009,2 hPa 0,0 l/m 0 min 0 min 0 W/m 12,9 km/h (3 Bft) 97,87 %
01.11.2018 03:20 8,3 C 8,3 C 7,2 C 87 % 1009,4 hPa 0,0 l/m 0 min 0 min 0 W/m 6,4 km/h (2 Bft) 97,87 %
01.11.2018 03:22 8,3 C 8,3 C 7,2 C 87 % 1009,3 hPa 0,0 l/m 0 min 0 min 0 W/m 6,4 km/h (2 Bft) 97,87 %
01.11.2018 03:24 8,3 C 8,3 C 7,2 C 87 % 1009,4 hPa 0,0 l/m 0 min 0 min 0 W/m 6,4 km/h (2 Bft) 97,87 %
01.11.2018 03:26 8,3 C 8,3 C 7,2 C 87 % 1009,4 hPa 0,0 l/m 0 min 0 min 0 W/m 3,2 km/h (1 Bft) 97,87 %
01.11.2018 03:28 8,3 C 8,3 C 7,2 C 87 % 1009,5 hPa 0,0 l/m 0 min 0 min 0 W/m 9,7 km/h (2 Bft) 97,83 %
01.11.2018 03:30 8,4 C 8,3 C 7,2 C 87 % 1009,5 hPa 0,0 l/m 0 min 0 min 0 W/m 6,4 km/h (2 Bft) 95,74 %
01.11.2018 03:32 8,4 C 8,3 C 7,2 C 87 % 1009,4 hPa 0,0 l/m 0 min 0 min 0 W/m 9,7 km/h (2 Bft) 97,87 %
01.11.2018 03:34 8,4 C 8,3 C 7,2 C 87 % 1009,4 hPa 0,0 l/m 0 min 0 min 0 W/m 12,9 km/h (3 Bft) 100,00 %
01.11.2018 03:38 8,4 C 8,3 C 7,2 C 86 % 1009,3 hPa 0,0 l/m 0 min 0 min 0 W/m 12,9 km/h (3 Bft) 96,81 %
01.11.2018 03:40 8,4 C 8,3 C 7,2 C 86 % 1009,2 hPa 0,0 l/m 0 min 0 min 0 W/m 9,7 km/h (2 Bft) 97,83 %
01.11.2018 03:42 8,5 C 8,3 C 7,2 C 86 % 1009,3 hPa 0,0 l/m 0 min 0 min 0 W/m 9,7 km/h (2 Bft) 97,87 %
01.11.2018 03:44 8,5 C 8,3 C 7,2 C 85 % 1009,2 hPa 0,0 l/m 0 min 0 min 0 W/m 9,7 km/h (2 Bft) 97,87 %
01.11.2018 03:46 8,5 C 8,3 C 7,2 C 85 % 1009,1 hPa 0,0 l/m 0 min 0 min 0 W/m 12,9 km/h (3 Bft) 95,74 %
01.11.2018 03:48 8,6 C 8,3 C 7,2 C 85 % 1009,1 hPa 0,0 l/m 0 min 0 min 0 W/m 12,9 km/h (3 Bft) 93,62 %
01.11.2018 03:50 8,6 C 8,3 C 7,2 C 85 % 1008,9 hPa 0,0 l/m 0 min 0 min 0 W/m 9,7 km/h (2 Bft) 93,62 %
01.11.2018 03:52 8,6 C 8,3 C 7,2 C 85 % 1009,0 hPa 0,0 l/m 0 min 0 min 0 W/m 12,9 km/h (3 Bft) 93,48 %
01.11.2018 03:54 8,6 C 7,8 C 7,2 C 85 % 1009,1 hPa 0,0 l/m 0 min 0 min 0 W/m 9,7 km/h (2 Bft) 95,74 %
01.11.2018 03:56 8,6 C 7,8 C 7,2 C 85 % 1008,9 hPa 0,0 l/m 0 min 0 min 0 W/m 9,7 km/h (2 Bft) 97,87 %
01.11.2018 03:58 8,6 C 7,8 C 7,2 C 85 % 1009,1 hPa 0,0 l/m 0 min 0 min 0 W/m 9,7 km/h (2 Bft) 95,74 %
01.11.2018 04:00 8,6 C 7,8 C 7,2 C 84 % 1009,1 hPa 0,0 l/m 0 min 0 min 0 W/m 9,7 km/h (2 Bft) 93,62 %
01.11.2018 04:02 8,6 C 7,8 C 7,2 C 84 % 1008,9 hPa 0,0 l/m 0 min 0 min 0 W/m 9,7 km/h (2 Bft) 100,00 %
01.11.2018 04:04 8,6 C 7,8 C 7,2 C 84 % 1008,9 hPa 0,0 l/m 0 min 0 min 0 W/m 9,7 km/h (2 Bft) 97,87 %
01.11.2018 04:08 8,6 C 7,8 C 7,2 C 84 % 1009,0 hPa 0,0 l/m 0 min 0 min 0 W/m 12,9 km/h (3 Bft) 93,62 %
01.11.2018 04:10 8,6 C 7,8 C 7,2 C 84 % 1009,0 hPa 0,0 l/m 0 min 0 min 0 W/m 6,4 km/h (2 Bft) 95,74 %
01.11.2018 04:12 8,6 C 7,8 C 6,7 C 84 % 1009,0 hPa 0,0 l/m 0 min 0 min 0 W/m 12,9 km/h (3 Bft) 93,62 %
01.11.2018 04:14 8,5 C 7,8 C 6,7 C 84 % 1008,9 hPa 0,0 l/m 0 min 0 min 0 W/m 12,9 km/h (3 Bft) 97,83 %
01.11.2018 04:16 8,5 C 7,8 C 6,7 C 84 % 1008,9 hPa 0,0 l/m 0 min 0 min 0 W/m 9,7 km/h (2 Bft) 91,49 %
01.11.2018 04:18 8,5 C 7,8 C 6,7 C 84 % 1008,8 hPa 0,0 l/m 0 min 0 min 0 W/m 19,3 km/h (3 Bft) 95,74 %
01.11.2018 04:20 8,4 C 7,8 C 6,7 C 84 % 1008,8 hPa 0,0 l/m 0 min 0 min 0 W/m 12,9 km/h (3 Bft) 95,74 %
01.11.2018 04:22 8,4 C 7,8 C 6,7 C 84 % 1008,8 hPa 0,0 l/m 0 min 0 min 0 W/m 16,1 km/h (3 Bft) 95,74 %
01.11.2018 04:24 8,4 C 7,8 C 6,7 C 84 % 1008,7 hPa 0,0 l/m 0 min 0 min 0 W/m 16,1 km/h (3 Bft) 95,74 %
01.11.2018 04:26 8,4 C 7,8 C 6,7 C 84 % 1008,7 hPa 0,0 l/m 0 min 0 min 0 W/m 12,9 km/h (3 Bft) 95,65 %
01.11.2018 04:28 8,4 C 7,8 C 6,7 C 83 % 1008,7 hPa 0,0 l/m 0 min 0 min 0 W/m 12,9 km/h (3 Bft) 93,62 %
01.11.2018 04:30 8,4 C 7,8 C 6,7 C 83 % 1008,8 hPa 0,0 l/m 0 min 0 min 0 W/m 12,9 km/h (3 Bft) 95,74 %
01.11.2018 04:32 8,4 C 7,8 C 6,7 C 83 % 1008,7 hPa 0,0 l/m 0 min 0 min 0 W/m 19,3 km/h (3 Bft) 95,74 %
01.11.2018 04:34 8,4 C 7,8 C 6,7 C 83 % 1008,7 hPa 0,0 l/m 0 min 0 min 0 W/m 12,9 km/h (3 Bft) 97,87 %
01.11.2018 04:38 8,3 C 7,8 C 6,7 C 83 % 1008,6 hPa 0,0 l/m 0 min 0 min 0 W/m 16,1 km/h (3 Bft) 97,85 %
01.11.2018 04:40 8,3 C 7,8 C 6,7 C 83 % 1008,6 hPa 0,0 l/m 0 min 0 min 0 W/m 19,3 km/h (3 Bft) 97,87 %
01.11.2018 04:42 8,3 C 7,8 C 6,7 C 83 % 1008,6 hPa 0,0 l/m 0 min 0 min 0 W/m 9,7 km/h (2 Bft) 95,74 %
01.11.2018 04:44 8,3 C 7,8 C 6,7 C 83 % 1008,6 hPa 0,0 l/m 0 min 0 min 0 W/m 12,9 km/h (3 Bft) 97,87 %
01.11.2018 04:46 8,3 C 7,8 C 6,7 C 83 % 1008,7 hPa 0,0 l/m 0 min 0 min 0 W/m 12,9 km/h (3 Bft) 95,74 %
01.11.2018 04:48 8,3 C 7,8 C 6,7 C 83 % 1008,6 hPa 0,0 l/m 0 min 0 min 0 W/m 12,9 km/h (3 Bft) 97,87 %
01.11.2018 04:50 8,3 C 7,8 C 6,7 C 83 % 1008,7 hPa 0,0 l/m 0 min 0 min 0 W/m 12,9 km/h (3 Bft) 97,83 %
01.11.2018 04:52 8,3 C 7,8 C 6,7 C 83 % 1008,6 hPa 0,0 l/m 0 min 0 min 0 W/m 6,4 km/h (2 Bft) 97,87 %
01.11.2018 04:54 8,3 C 7,8 C 6,7 C 83 % 1008,6 hPa 0,0 l/m 0 min 0 min 0 W/m 16,1 km/h (3 Bft) 95,74 %
01.11.2018 04:56 8,3 C 7,8 C 6,7 C 83 % 1008,5 hPa 0,0 l/m 0 min 0 min 0 W/m 16,1 km/h (3 Bft) 97,87 %
01.11.2018 04:58 8,3 C 7,8 C 6,7 C 83 % 1008,5 hPa 0,0 l/m 0 min 0 min 0 W/m 19,3 km/h (3 Bft) 95,74 %
01.11.2018 05:00 8,3 C 7,8 C 6,7 C 83 % 1008,6 hPa 0,0 l/m 0 min 0 min 0 W/m 9,7 km/h (2 Bft) 97,87 %
01.11.2018 05:02 8,3 C 7,8 C 6,7 C 83 % 1008,5 hPa 0,0 l/m 0 min 0 min 0 W/m 9,7 km/h (2 Bft) 100,00 %
01.11.2018 05:04 8,3 C 7,2 C 6,7 C 83 % 1008,5 hPa 0,0 l/m 0 min 0 min 0 W/m 9,7 km/h (2 Bft) 100,00 %
01.11.2018 05:05 8,3 C 7,2 C 6,7 C 83 % 1008,5 hPa 0,0 l/m 0 min 0 min 0 W/m 9,7 km/h (2 Bft) 100,00 %
01.11.2018 05:12 8,2 C 7,2 C 6,7 C 83 % 1008,5 hPa 0,0 l/m 0 min 0 min 0 W/m 9,7 km/h (2 Bft) 95,65 %
01.11.2018 05:18 8,2 C 7,2 C 6,7 C 83 % 1008,6 hPa 0,0 l/m 0 min 0 min 0 W/m 9,7 km/h (2 Bft) 94,74 %
01.11.2018 05:20 8,1 C 7,2 C 6,7 C 83 % 1008,4 hPa 0,0 l/m 0 min 0 min 0 W/m 9,7 km/h (2 Bft) 100,00 %
01.11.2018 05:22 8,1 C 7,2 C 6,7 C 83 % 1008,4 hPa 0,0 l/m 0 min 0 min 0 W/m 9,7 km/h (2 Bft) 97,87 %
01.11.2018 05:24 8,1 C 7,2 C 6,7 C 83 % 1008,4 hPa 0,0 l/m 0 min 0 min 0 W/m 9,7 km/h (2 Bft) 95,65 %
01.11.2018 05:26 8,1 C 7,2 C 6,7 C 84 % 1008,4 hPa 0,0 l/m 0 min 0 min 0 W/m 9,7 km/h (2 Bft) 95,74 %
01.11.2018 05:28 8,1 C 7,2 C 6,7 C 83 % 1008,4 hPa 0,0 l/m 0 min 0 min 0 W/m 12,9 km/h (3 Bft) 95,74 %
01.11.2018 05:30 8,1 C 7,2 C 6,7 C 83 % 1008,5 hPa 0,0 l/m 0 min 0 min 0 W/m 16,1 km/h (3 Bft) 100,00 %
01.11.2018 05:32 8,0 C 7,2 C 6,7 C 84 % 1008,6 hPa 0,0 l/m 0 min 0 min 0 W/m 12,9 km/h (3 Bft) 100,00 %
01.11.2018 05:34 8,0 C 7,2 C 6,7 C 84 % 1008,7 hPa 0,0 l/m 0 min 0 min 0 W/m 12,9 km/h (3 Bft) 100,00 %
01.11.2018 05:38 8,0 C 7,2 C 6,7 C 84 % 1008,6 hPa 0,0 l/m 0 min 0 min 0 W/m 9,7 km/h (2 Bft) 98,92 %
01.11.2018 05:40 8,0 C 7,2 C 6,7 C 84 % 1008,5 hPa 0,0 l/m 0 min 0 min 0 W/m 12,9 km/h (3 Bft) 97,87 %
01.11.2018 05:42 7,9 C 7,2 C 6,7 C 84 % 1008,5 hPa 0,0 l/m 0 min 0 min 0 W/m 9,7 km/h (2 Bft) 95,74 %
01.11.2018 05:44 7,9 C 7,2 C 6,7 C 84 % 1008,5 hPa 0,0 l/m 0 min 0 min 0 W/m 9,7 km/h (2 Bft) 95,74 %
01.11.2018 05:46 7,9 C 7,2 C 6,7 C 84 % 1008,5 hPa 0,0 l/m 0 min 0 min 0 W/m 12,9 km/h (3 Bft) 100,00 %
01.11.2018 05:48 7,9 C 7,2 C 6,7 C 84 % 1008,5 hPa 0,0 l/m 0 min 0 min 0 W/m 9,7 km/h (2 Bft) 97,83 %
01.11.2018 05:50 7,9 C 7,2 C 6,7 C 84 % 1008,5 hPa 0,0 l/m 0 min 0 min 0 W/m 12,9 km/h (3 Bft) 97,87 %
01.11.2018 05:52 7,9 C 7,2 C 6,7 C 84 % 1008,5 hPa 0,0 l/m 0 min 0 min 0 W/m 9,7 km/h (2 Bft) 98,11 %
01.11.2018 05:54 7,9 C 7,2 C 6,7 C 84 % 1008,5 hPa 0,0 l/m 0 min 0 min 0 W/m 9,7 km/h (2 Bft) 100,00 %
01.11.2018 05:56 7,9 C 7,2 C 6,7 C 84 % 1008,5 hPa 0,0 l/m 0 min 0 min 0 W/m 9,7 km/h (2 Bft) 100,00 %
01.11.2018 05:58 7,8 C 7,2 C 6,7 C 84 % 1008,5 hPa 0,0 l/m 0 min 0 min 0 W/m 12,9 km/h (3 Bft) 97,87 %
01.11.2018 06:00 7,8 C 7,2 C 6,7 C 84 % 1008,5 hPa 0,0 l/m 0 min 0 min 0 W/m 9,7 km/h (2 Bft) 97,83 %
01.11.2018 06:02 7,8 C 6,7 C 6,7 C 84 % 1008,3 hPa 0,0 l/m 0 min 0 min 0 W/m 6,4 km/h (2 Bft) 97,87 %
01.11.2018 06:04 7,8 C 6,7 C 6,7 C 84 % 1008,2 hPa 0,0 l/m 0 min 0 min 0 W/m 6,4 km/h (2 Bft) 97,87 %
01.11.2018 06:08 7,8 C 6,7 C 6,7 C 84 % 1008,0 hPa 0,0 l/m 0 min 0 min 0 W/m 9,7 km/h (2 Bft) 97,87 %
01.11.2018 06:10 7,8 C 7,2 C 6,7 C 84 % 1008,0 hPa 0,0 l/m 0 min 0 min 0 W/m 9,7 km/h (2 Bft) 97,87 %
01.11.2018 06:12 7,7 C 7,2 C 6,7 C 84 % 1007,9 hPa 0,0 l/m 0 min 0 min 0 W/m 6,4 km/h (2 Bft) 95,65 %
01.11.2018 06:14 7,7 C 7,2 C 6,7 C 84 % 1007,9 hPa 0,0 l/m 0 min 0 min 0 W/m 9,7 km/h (2 Bft) 97,87 %
01.11.2018 06:16 7,7 C 7,2 C 6,7 C 85 % 1007,9 hPa 0,0 l/m 0 min 0 min 0 W/m 9,7 km/h (2 Bft) 97,87 %
01.11.2018 06:18 7,7 C 7,2 C 6,7 C 85 % 1007,9 hPa 0,0 l/m 0 min 0 min 0 W/m 12,9 km/h (3 Bft) 97,87 %
01.11.2018 06:20 7,7 C 7,2 C 6,7 C 85 % 1008,0 hPa 0,0 l/m 0 min 0 min 0 W/m 9,7 km/h (2 Bft) 97,87 %
01.11.2018 06:22 7,7 C 7,2 C 6,7 C 85 % 1008,0 hPa 0,0 l/m 0 min 0 min 0 W/m 6,4 km/h (2 Bft) 97,92 %
01.11.2018 06:24 7,7 C 7,2 C 6,7 C 85 % 1008,1 hPa 0,0 l/m 0 min 0 min 0 W/m 12,9 km/h (3 Bft) 97,83 %
01.11.2018 06:26 7,7 C 7,2 C 6,7 C 85 % 1008,1 hPa 0,0 l/m 0 min 0 min 0 W/m 12,9 km/h (3 Bft) 95,74 %
01.11.2018 06:28 7,7 C 7,2 C 6,7 C 85 % 1008,1 hPa 0,0 l/m 0 min 0 min 0 W/m 9,7 km/h (2 Bft) 95,74 %
01.11.2018 06:30 7,7 C 7,2 C 6,7 C 85 % 1008,2 hPa 0,0 l/m 0 min 0 min 0 W/m 9,7 km/h (2 Bft) 95,74 %
01.11.2018 06:32 7,7 C 7,2 C 6,7 C 85 % 1008,2 hPa 0,0 l/m 0 min 0 min 0 W/m 9,7 km/h (2 Bft) 95,74 %
01.11.2018 06:34 7,7 C 7,2 C 6,7 C 85 % 1008,2 hPa 0,0 l/m 0 min 0 min 0 W/m 12,9 km/h (3 Bft) 93,48 %
01.11.2018 06:38 7,7 C 7,2 C 6,7 C 85 % 1008,2 hPa 0,0 l/m 0 min 0 min 0 W/m 9,7 km/h (2 Bft) 96,81 %
01.11.2018 06:40 7,7 C 7,2 C 6,7 C 85 % 1008,2 hPa 0,0 l/m 0 min 0 min 0 W/m 12,9 km/h (3 Bft) 93,62 %
01.11.2018 06:42 7,7 C 7,2 C 6,7 C 85 % 1008,2 hPa 0,0 l/m 0 min 0 min 0 W/m 16,1 km/h (3 Bft) 97,87 %
01.11.2018 06:44 7,7 C 7,2 C 6,7 C 85 % 1008,2 hPa 0,0 l/m 0 min 0 min 0 W/m 12,9 km/h (3 Bft) 97,87 %
01.11.2018 06:46 7,7 C 7,2 C 6,7 C 85 % 1008,3 hPa 0,0 l/m 0 min 0 min 0 W/m 12,9 km/h (3 Bft) 97,83 %
01.11.2018 06:48 7,7 C 7,2 C 6,7 C 85 % 1008,3 hPa 0,0 l/m 0 min 0 min 0 W/m 12,9 km/h (3 Bft) 97,87 %
01.11.2018 06:50 7,7 C 7,2 C 6,7 C 85 % 1008,4 hPa 0,0 l/m 0 min 0 min 0 W/m 16,1 km/h (3 Bft) 97,87 %
01.11.2018 06:52 7,7 C 7,2 C 6,7 C 85 % 1008,4 hPa 0,0 l/m 0 min 0 min 0 W/m 12,9 km/h (3 Bft) 97,87 %
01.11.2018 06:54 7,7 C 7,2 C 6,7 C 85 % 1008,4 hPa 0,0 l/m 0 min 0 min 0 W/m 12,9 km/h (3 Bft) 97,87 %
01.11.2018 06:56 7,7 C 7,2 C 6,7 C 85 % 1008,4 hPa 0,0 l/m 0 min 0 min 0 W/m 12,9 km/h (3 Bft) 97,87 %
01.11.2018 06:58 7,7 C 7,2 C 6,7 C 85 % 1008,4 hPa 0,0 l/m 0 min 0 min 0 W/m 12,9 km/h (3 Bft) 95,65 %
01.11.2018 07:00 7,7 C 7,2 C 6,7 C 85 % 1008,5 hPa 0,0 l/m 0 min 0 min 0 W/m 12,9 km/h (3 Bft) 97,87 %
01.11.2018 07:02 7,7 C 7,2 C 6,7 C 85 % 1008,5 hPa 0,0 l/m 0 min 0 min 0 W/m 6,4 km/h (2 Bft) 95,74 %
01.11.2018 07:04 7,7 C 7,2 C 6,7 C 85 % 1008,5 hPa 0,0 l/m 0 min 0 min 0 W/m 12,9 km/h (3 Bft) 97,87 %
01.11.2018 07:08 7,6 C 6,7 C 6,1 C 85 % 1008,4 hPa 0,0 l/m 0 min 0 min 0 W/m 16,1 km/h (3 Bft) 97,89 %
01.11.2018 07:10 7,6 C 7,2 C 6,1 C 85 % 1008,4 hPa 0,0 l/m 0 min 0 min 0 W/m 16,1 km/h (3 Bft) 97,83 %
01.11.2018 07:12 7,6 C 6,7 C 6,1 C 85 % 1008,4 hPa 0,0 l/m 0 min 0 min 0 W/m 9,7 km/h (2 Bft) 100,00 %
01.11.2018 07:14 7,6 C 6,7 C 6,1 C 85 % 1008,3 hPa 0,0 l/m 0 min 0 min 0 W/m 9,7 km/h (2 Bft) 97,87 %
01.11.2018 07:16 7,6 C 6,7 C 6,1 C 85 % 1008,4 hPa 0,0 l/m 0 min 0 min 0 W/m 12,9 km/h (3 Bft) 100,00 %
01.11.2018 07:18 7,6 C 6,7 C 6,1 C 85 % 1008,3 hPa 0,0 l/m 0 min 0 min 0 W/m 9,7 km/h (2 Bft) 100,00 %
01.11.2018 07:20 7,6 C 6,7 C 6,1 C 85 % 1008,3 hPa 0,0 l/m 0 min 0 min 0 W/m 16,1 km/h (3 Bft) 100,00 %
01.11.2018 07:22 7,6 C 6,7 C 6,1 C 85 % 1008,3 hPa 0,0 l/m 0 min 0 min 0 W/m 16,1 km/h (3 Bft) 95,65 %
01.11.2018 07:24 7,6 C 7,2 C 6,1 C 85 % 1008,4 hPa 0,0 l/m 0 min 0 min 0 W/m 12,9 km/h (3 Bft) 100,00 %
01.11.2018 07:26 7,6 C 6,7 C 6,1 C 85 % 1008,4 hPa 0,0 l/m 0 min 0 min 0 W/m 9,7 km/h (2 Bft) 100,00 %
01.11.2018 07:28 7,5 C 6,7 C 6,1 C 85 % 1008,4 hPa 0,0 l/m 0 min 0 min 0 W/m 12,9 km/h (3 Bft) 100,00 %
01.11.2018 07:30 7,5 C 6,7 C 6,1 C 85 % 1008,5 hPa 0,0 l/m 0 min 0 min 1 W/m 9,7 km/h (2 Bft) 100,00 %
01.11.2018 07:32 7,5 C 6,7 C 6,1 C 85 % 1008,5 hPa 0,0 l/m 0 min 0 min 5 W/m 12,9 km/h (3 Bft) 100,00 %
01.11.2018 07:34 7,5 C 6,7 C 6,1 C 85 % 1008,5 hPa 0,0 l/m 0 min 0 min 5 W/m 12,9 km/h (3 Bft) 100,00 %
01.11.2018 07:38 7,5 C 6,7 C 6,1 C 85 % 1008,6 hPa 0,0 l/m 0 min 0 min 5 W/m 12,9 km/h (3 Bft) 95,18 %
01.11.2018 07:40 7,4 C 6,7 C 6,1 C 85 % 1008,7 hPa 0,0 l/m 0 min 0 min 7 W/m 9,7 km/h (2 Bft) 97,87 %
01.11.2018 07:42 7,4 C 7,2 C 6,1 C 85 % 1008,6 hPa 0,0 l/m 0 min 0 min 7 W/m 16,1 km/h (3 Bft) 97,87 %
01.11.2018 07:44 7,4 C 7,2 C 6,1 C 85 % 1008,7 hPa 0,0 l/m 0 min 0 min 7 W/m 16,1 km/h (3 Bft) 97,87 %
01.11.2018 07:46 7,4 C 7,2 C 6,1 C 85 % 1008,7 hPa 0,0 l/m 0 min 0 min 9 W/m 12,9 km/h (3 Bft) 97,87 %
01.11.2018 07:48 7,4 C 7,2 C 6,1 C 85 % 1008,7 hPa 0,0 l/m 0 min 0 min 9 W/m 16,1 km/h (3 Bft) 97,83 %
01.11.2018 07:50 7,4 C 7,2 C 6,1 C 85 % 1008,7 hPa 0,0 l/m 0 min 0 min 9 W/m 12,9 km/h (3 Bft) 94,92 %
01.11.2018 07:52 7,4 C 7,2 C 6,1 C 85 % 1008,7 hPa 0,0 l/m 0 min 0 min 10 W/m 9,7 km/h (2 Bft) 97,87 %
01.11.2018 07:54 7,5 C 7,2 C 6,7 C 85 % 1008,6 hPa 0,0 l/m 0 min 0 min 11 W/m 19,3 km/h (3 Bft) 97,14 %
01.11.2018 07:56 7,5 C 7,2 C 6,7 C 85 % 1008,7 hPa 0,0 l/m 0 min 0 min 11 W/m 19,3 km/h (3 Bft) 97,87 %
01.11.2018 07:58 7,5 C 7,2 C 6,7 C 85 % 1008,8 hPa 0,0 l/m 0 min 0 min 12 W/m 16,1 km/h (3 Bft) 93,62 %
01.11.2018 08:00 7,5 C 7,2 C 6,7 C 85 % 1008,9 hPa 0,0 l/m 0 min 0 min 13 W/m 9,7 km/h (2 Bft) 97,83 %
01.11.2018 08:02 7,5 C 7,2 C 6,7 C 85 % 1008,9 hPa 0,0 l/m 0 min 0 min 14 W/m 12,9 km/h (3 Bft) 97,87 %
01.11.2018 08:04 7,5 C 7,2 C 6,7 C 85 % 1009,0 hPa 0,0 l/m 0 min 0 min 14 W/m 9,7 km/h (2 Bft) 97,87 %
01.11.2018 08:08 7,6 C 7,2 C 6,7 C 85 % 1009,1 hPa 0,0 l/m 0 min 0 min 17 W/m 16,1 km/h (3 Bft) 96,84 %
01.11.2018 08:10 7,6 C 7,2 C 6,7 C 85 % 1009,1 hPa 0,0 l/m 0 min 0 min 19 W/m 12,9 km/h (3 Bft) 97,83 %
01.11.2018 08:12 7,6 C 7,2 C 6,7 C 86 % 1009,2 hPa 0,0 l/m 0 min 0 min 20 W/m 9,7 km/h (2 Bft) 97,87 %
01.11.2018 08:14 7,6 C 7,2 C 6,7 C 86 % 1009,1 hPa 0,0 l/m 0 min 0 min 22 W/m 9,7 km/h (2 Bft) 95,74 %
01.11.2018 08:16 7,6 C 7,2 C 6,7 C 86 % 1009,0 hPa 0,0 l/m 0 min 0 min 24 W/m 12,9 km/h (3 Bft) 97,87 %
01.11.2018 08:18 7,6 C 7,2 C 6,7 C 86 % 1009,0 hPa 0,0 l/m 0 min 0 min 26 W/m 12,9 km/h (3 Bft) 95,74 %
01.11.2018 08:20 7,6 C 7,2 C 6,7 C 86 % 1009,1 hPa 0,0 l/m 0 min 0 min 28 W/m 9,7 km/h (2 Bft) 98,28 %
01.11.2018 08:22 7,7 C 7,2 C 6,7 C 86 % 1009,0 hPa 0,0 l/m 0 min 0 min 29 W/m 12,9 km/h (3 Bft) 94,44 %
01.11.2018 08:24 7,7 C 7,2 C 6,7 C 86 % 1009,1 hPa 0,0 l/m 0 min 0 min 31 W/m 9,7 km/h (2 Bft) 97,83 %
01.11.2018 08:26 7,7 C 7,8 C 6,7 C 86 % 1009,1 hPa 0,0 l/m 0 min 0 min 33 W/m 9,7 km/h (2 Bft) 97,87 %
01.11.2018 08:28 7,7 C 7,8 C 6,7 C 86 % 1009,1 hPa 0,0 l/m 0 min 0 min 35 W/m 12,9 km/h (3 Bft) 91,49 %
01.11.2018 08:30 7,7 C 7,8 C 6,7 C 86 % 1009,1 hPa 0,0 l/m 0 min 0 min 39 W/m 12,9 km/h (3 Bft) 97,87 %
01.11.2018 08:32 7,7 C 7,8 C 6,7 C 86 % 1009,1 hPa 0,0 l/m 0 min 0 min 43 W/m 12,9 km/h (3 Bft) 97,87 %
01.11.2018 08:34 7,7 C 7,8 C 6,7 C 86 % 1009,1 hPa 0,0 l/m 0 min 0 min 48 W/m 12,9 km/h (3 Bft) 97,83 %
01.11.2018 08:38 7,8 C 7,8 C 6,7 C 86 % 1008,9 hPa 0,0 l/m 0 min 0 min 55 W/m 16,1 km/h (3 Bft) 97,87 %
01.11.2018 08:40 7,8 C 7,8 C 7,2 C 86 % 1008,9 hPa 0,0 l/m 0 min 0 min 60 W/m 12,9 km/h (3 Bft) 97,87 %
01.11.2018 08:42 7,9 C 7,8 C 7,2 C 86 % 1008,8 hPa 0,0 l/m 0 min 0 min 62 W/m 12,9 km/h (3 Bft) 97,87 %
01.11.2018 08:44 7,9 C 8,3 C 7,2 C 86 % 1008,8 hPa 0,0 l/m 0 min 0 min 63 W/m 12,9 km/h (3 Bft) 95,74 %
01.11.2018 08:46 7,9 C 8,3 C 7,2 C 86 % 1008,7 hPa 0,0 l/m 0 min 0 min 64 W/m 12,9 km/h (3 Bft) 95,65 %
01.11.2018 08:48 7,9 C 8,3 C 7,2 C 85 % 1008,7 hPa 0,0 l/m 0 min 0 min 67 W/m 9,7 km/h (2 Bft) 97,87 %
01.11.2018 08:50 7,9 C 8,3 C 7,2 C 85 % 1008,6 hPa 0,0 l/m 0 min 0 min 69 W/m 16,1 km/h (3 Bft) 96,61 %
01.11.2018 08:52 8,0 C 8,3 C 7,2 C 85 % 1008,6 hPa 0,0 l/m 0 min 0 min 70 W/m 12,9 km/h (3 Bft) 91,67 %
01.11.2018 08:54 8,0 C 8,3 C 7,2 C 85 % 1008,6 hPa 0,0 l/m 0 min 0 min 70 W/m 9,7 km/h (2 Bft) 97,87 %
01.11.2018 08:56 8,1 C 8,3 C 7,2 C 85 % 1008,5 hPa 0,0 l/m 0 min 0 min 70 W/m 6,4 km/h (2 Bft) 95,74 %
01.11.2018 08:58 8,1 C 8,3 C 7,2 C 85 % 1008,5 hPa 0,0 l/m 0 min 0 min 72 W/m 16,1 km/h (3 Bft) 97,83 %
01.11.2018 09:00 8,1 C 8,3 C 7,2 C 85 % 1008,5 hPa 0,0 l/m 0 min 0 min 72 W/m 9,7 km/h (2 Bft) 97,87 %
01.11.2018 09:02 8,1 C 8,3 C 7,2 C 85 % 1008,4 hPa 0,0 l/m 0 min 0 min 72 W/m 9,7 km/h (2 Bft) 95,74 %
01.11.2018 09:04 8,1 C 8,3 C 7,2 C 85 % 1008,4 hPa 0,0 l/m 0 min 0 min 74 W/m 6,4 km/h (2 Bft) 91,49 %
01.11.2018 09:08 8,2 C 8,3 C 7,2 C 85 % 1008,3 hPa 0,0 l/m 0 min 0 min 76 W/m 9,7 km/h (2 Bft) 95,74 %
01.11.2018 09:10 8,2 C 8,3 C 7,2 C 85 % 1008,2 hPa 0,0 l/m 0 min 0 min 77 W/m 9,7 km/h (2 Bft) 95,65 %
01.11.2018 09:12 8,2 C 8,3 C 7,2 C 85 % 1008,2 hPa 0,0 l/m 0 min 0 min 78 W/m 9,7 km/h (2 Bft) 93,62 %
01.11.2018 09:14 8,2 C 8,3 C 7,2 C 85 % 1008,1 hPa 0,0 l/m 0 min 0 min 79 W/m 6,4 km/h (2 Bft) 93,62 %
01.11.2018 09:16 8,2 C 8,3 C 7,2 C 85 % 1008,1 hPa 0,0 l/m 0 min 0 min 79 W/m 6,4 km/h (2 Bft) 95,74 %
01.11.2018 09:18 8,2 C 8,3 C 7,2 C 85 % 1008,1 hPa 0,0 l/m 0 min 0 min 79 W/m 9,7 km/h (2 Bft) 95,74 %
01.11.2018 09:20 8,2 C 8,3 C 7,2 C 85 % 1008,1 hPa 0,0 l/m 0 min 0 min 80 W/m 9,7 km/h (2 Bft) 93,48 %
01.11.2018 09:22 8,3 C 8,9 C 7,2 C 85 % 1008,1 hPa 0,0 l/m 0 min 0 min 82 W/m 3,2 km/h (1 Bft) 95,74 %
01.11.2018 09:24 8,3 C 8,3 C 7,2 C 85 % 1008,0 hPa 0,0 l/m 0 min 0 min 84 W/m 9,7 km/h (2 Bft) 95,74 %
01.11.2018 09:26 8,3 C 8,9 C 7,2 C 85 % 1008,2 hPa 0,0 l/m 0 min 0 min 88 W/m 9,7 km/h (2 Bft) 97,87 %
01.11.2018 09:28 8,3 C 8,9 C 7,2 C 85 % 1008,2 hPa 0,0 l/m 0 min 0 min 90 W/m 9,7 km/h (2 Bft) 97,87 %
01.11.2018 09:30 8,3 C 8,9 C 7,2 C 85 % 1008,1 hPa 0,0 l/m 0 min 0 min 92 W/m 9,7 km/h (2 Bft) 97,87 %
01.11.2018 09:32 8,3 C 8,9 C 7,2 C 85 % 1008,1 hPa 0,0 l/m 0 min 0 min 96 W/m 9,7 km/h (2 Bft) 97,83 %
01.11.2018 09:34 8,4 C 8,9 C 7,2 C 85 % 1008,1 hPa 0,0 l/m 0 min 0 min 99 W/m 9,7 km/h (2 Bft) 97,87 %
01.11.2018 09:38 8,4 C 9,4 C 7,2 C 85 % 1008,1 hPa 0,0 l/m 0 min 0 min 104 W/m 16,1 km/h (3 Bft) 96,81 %
01.11.2018 09:40 8,5 C 9,4 C 7,2 C 85 % 1008,2 hPa 0,0 l/m 0 min 0 min 106 W/m 12,9 km/h (3 Bft) 95,74 %
01.11.2018 09:42 8,5 C 9,4 C 7,2 C 84 % 1008,2 hPa 0,0 l/m 0 min 0 min 107 W/m 16,1 km/h (3 Bft) 93,62 %
01.11.2018 09:44 8,6 C 9,4 C 7,2 C 84 % 1008,2 hPa 0,0 l/m 0 min 0 min 107 W/m 19,3 km/h (3 Bft) 100,00 %
01.11.2018 09:46 8,6 C 9,4 C 7,8 C 84 % 1008,2 hPa 0,0 l/m 0 min 0 min 111 W/m 9,7 km/h (2 Bft) 95,74 %
01.11.2018 09:48 8,6 C 9,4 C 7,8 C 84 % 1008,0 hPa 0,0 l/m 0 min 0 min 114 W/m 9,7 km/h (2 Bft) 100,00 %
01.11.2018 09:50 8,7 C 9,4 C 7,8 C 84 % 1008,1 hPa 0,0 l/m 0 min 0 min 118 W/m 12,9 km/h (3 Bft) 100,00 %
01.11.2018 09:52 8,7 C 9,4 C 7,8 C 84 % 1008,0 hPa 0,0 l/m 0 min 0 min 122 W/m 6,4 km/h (2 Bft) 100,00 %
01.11.2018 09:54 8,7 C 9,4 C 7,8 C 84 % 1008,0 hPa 0,0 l/m 0 min 0 min 125 W/m 9,7 km/h (2 Bft) 97,87 %
01.11.2018 09:56 8,8 C 9,4 C 7,8 C 84 % 1008,0 hPa 0,0 l/m 0 min 0 min 125 W/m 9,7 km/h (2 Bft) 100,00 %
01.11.2018 09:58 8,8 C 9,4 C 7,8 C 84 % 1008,0 hPa 0,0 l/m 0 min 0 min 124 W/m 9,7 km/h (2 Bft) 100,00 %
01.11.2018 10:00 8,8 C 9,4 C 7,8 C 84 % 1008,0 hPa 0,0 l/m 0 min 0 min 122 W/m 9,7 km/h (2 Bft) 100,00 %
01.11.2018 10:02 8,9 C 9,4 C 7,8 C 84 % 1008,1 hPa 0,0 l/m 0 min 0 min 122 W/m 12,9 km/h (3 Bft) 100,00 %
01.11.2018 10:04 8,9 C 9,4 C 7,8 C 84 % 1008,1 hPa 0,0 l/m 0 min 0 min 125 W/m 12,9 km/h (3 Bft) 100,00 %
01.11.2018 10:08 9,0 C 9,4 C 7,8 C 84 % 1008,0 hPa 0,0 l/m 0 min 0 min 130 W/m 12,9 km/h (3 Bft) 100,00 %
01.11.2018 10:10 9,1 C 10,0 C 7,8 C 84 % 1008,0 hPa 0,0 l/m 0 min 0 min 128 W/m 6,4 km/h (2 Bft) 100,00 %
01.11.2018 10:12 9,1 C 10,0 C 7,8 C 84 % 1008,0 hPa 0,0 l/m 0 min 0 min 124 W/m 9,7 km/h (2 Bft) 100,00 %
01.11.2018 10:14 9,1 C 10,0 C 7,8 C 84 % 1008,0 hPa 0,0 l/m 0 min 0 min 121 W/m 9,7 km/h (2 Bft) 97,87 %
01.11.2018 10:16 9,2 C 10,0 C 7,8 C 84 % 1008,1 hPa 0,0 l/m 0 min 0 min 119 W/m 9,7 km/h (2 Bft) 100,00 %
01.11.2018 10:18 9,2 C 10,0 C 8,3 C 84 % 1008,1 hPa 0,0 l/m 0 min 0 min 120 W/m 6,4 km/h (2 Bft) 100,00 %
01.11.2018 10:20 9,2 C 10,0 C 8,3 C 84 % 1008,1 hPa 0,0 l/m 0 min 0 min 122 W/m 6,4 km/h (2 Bft) 98,28 %
01.11.2018 10:22 9,3 C 10,0 C 8,3 C 84 % 1008,1 hPa 0,0 l/m 0 min 0 min 124 W/m 12,9 km/h (3 Bft) 100,00 %
01.11.2018 10:24 9,3 C 10,0 C 8,3 C 84 % 1008,1 hPa 0,0 l/m 0 min 0 min 126 W/m 6,4 km/h (2 Bft) 100,00 %
01.11.2018 10:26 9,3 C 10,0 C 8,3 C 84 % 1008,1 hPa 0,0 l/m 0 min 0 min 127 W/m 9,7 km/h (2 Bft) 95,74 %
01.11.2018 10:28 9,4 C 10,0 C 8,3 C 84 % 1008,2 hPa 0,0 l/m 0 min 0 min 127 W/m 9,7 km/h (2 Bft) 100,00 %
01.11.2018 10:30 9,4 C 10,0 C 8,3 C 84 % 1008,1 hPa 0,0 l/m 0 min 0 min 129 W/m 12,9 km/h (3 Bft) 100,00 %
01.11.2018 10:32 9,4 C 10,0 C 8,3 C 84 % 1008,3 hPa 0,0 l/m 0 min 0 min 130 W/m 16,1 km/h (3 Bft) 95,65 %
01.11.2018 10:34 9,5 C 10,0 C 8,3 C 84 % 1008,3 hPa 0,0 l/m 0 min 0 min 130 W/m 9,7 km/h (2 Bft) 100,00 %
01.11.2018 10:38 9,6 C 10,0 C 8,3 C 83 % 1008,2 hPa 0,0 l/m 0 min 0 min 127 W/m 16,1 km/h (3 Bft) 98,94 %
01.11.2018 10:40 9,6 C 10,0 C 8,3 C 83 % 1008,1 hPa 0,0 l/m 0 min 0 min 121 W/m 12,9 km/h (3 Bft) 100,00 %
01.11.2018 10:42 9,6 C 10,0 C 8,3 C 83 % 1008,1 hPa 0,0 l/m 0 min 0 min 114 W/m 6,4 km/h (2 Bft) 100,00 %
01.11.2018 10:44 9,6 C 10,0 C 8,3 C 83 % 1008,0 hPa 0,0 l/m 0 min 0 min 109 W/m 12,9 km/h (3 Bft) 95,65 %
01.11.2018 10:46 9,7 C 10,0 C 8,3 C 83 % 1008,1 hPa 0,0 l/m 0 min 0 min 107 W/m 6,4 km/h (2 Bft) 97,87 %
01.11.2018 10:48 9,7 C 10,0 C 8,3 C 83 % 1008,2 hPa 0,0 l/m 0 min 0 min 109 W/m 9,7 km/h (2 Bft) 97,87 %
01.11.2018 10:50 9,7 C 10,0 C 8,3 C 83 % 1008,3 hPa 0,0 l/m 0 min 0 min 112 W/m 9,7 km/h (2 Bft) 98,31 %
01.11.2018 10:52 9,7 C 10,0 C 8,3 C 83 % 1008,3 hPa 0,0 l/m 0 min 0 min 113 W/m 12,9 km/h (3 Bft) 97,14 %
01.11.2018 10:54 9,7 C 10,0 C 8,3 C 83 % 1008,5 hPa 0,0 l/m 0 min 0 min 113 W/m 19,3 km/h (3 Bft) 97,87 %
01.11.2018 10:56 9,8 C 10,0 C 8,3 C 83 % 1008,6 hPa 0,0 l/m 0 min 0 min 113 W/m 12,9 km/h (3 Bft) 97,83 %
01.11.2018 10:58 9,8 C 10,0 C 8,3 C 83 % 1008,5 hPa 0,0 l/m 0 min 0 min 111 W/m 12,9 km/h (3 Bft) 97,87 %
01.11.2018 11:00 9,8 C 9,4 C 8,3 C 83 % 1008,4 hPa 0,0 l/m 0 min 0 min 107 W/m 12,9 km/h (3 Bft) 97,87 %
01.11.2018 11:02 9,8 C 10,0 C 8,3 C 83 % 1008,2 hPa 0,0 l/m 0 min 0 min 105 W/m 9,7 km/h (2 Bft) 97,87 %
01.11.2018 11:04 9,8 C 9,4 C 8,3 C 82 % 1008,1 hPa 0,0 l/m 0 min 0 min 103 W/m 9,7 km/h (2 Bft) 97,87 %
01.11.2018 11:08 9,8 C 10,0 C 8,3 C 82 % 1008,1 hPa 0,0 l/m 0 min 0 min 100 W/m 12,9 km/h (3 Bft) 97,85 %
01.11.2018 11:10 9,9 C 10,0 C 8,3 C 82 % 1008,1 hPa 0,0 l/m 0 min 0 min 103 W/m 9,7 km/h (2 Bft) 97,87 %
01.11.2018 11:12 9,9 C 10,0 C 8,3 C 82 % 1008,1 hPa 0,0 l/m 0 min 0 min 107 W/m 9,7 km/h (2 Bft) 97,87 %
01.11.2018 11:14 9,9 C 10,0 C 8,3 C 82 % 1008,1 hPa 0,0 l/m 0 min 0 min 110 W/m 9,7 km/h (2 Bft) 97,87 %
01.11.2018 11:16 9,9 C 10,0 C 8,3 C 82 % 1008,1 hPa 0,0 l/m 0 min 0 min 115 W/m 12,9 km/h (3 Bft) 97,87 %
01.11.2018 11:18 9,9 C 10,0 C 8,3 C 82 % 1008,1 hPa 0,0 l/m 0 min 0 min 121 W/m 6,4 km/h (2 Bft) 97,83 %
01.11.2018 11:20 9,9 C 10,0 C 8,3 C 82 % 1007,9 hPa 0,0 l/m 0 min 0 min 125 W/m 9,7 km/h (2 Bft) 94,92 %
01.11.2018 11:22 9,9 C 10,0 C 8,3 C 82 % 1008,0 hPa 0,0 l/m 0 min 0 min 127 W/m 9,7 km/h (2 Bft) 97,14 %
01.11.2018 11:24 9,9 C 10,0 C 8,9 C 82 % 1008,0 hPa 0,0 l/m 0 min 0 min 127 W/m 9,7 km/h (2 Bft) 95,74 %
01.11.2018 11:26 9,9 C 10,0 C 8,9 C 82 % 1008,0 hPa 0,0 l/m 0 min 0 min 125 W/m 12,9 km/h (3 Bft) 93,62 %
01.11.2018 11:28 9,9 C 10,0 C 8,9 C 82 % 1008,0 hPa 0,0 l/m 0 min 0 min 122 W/m 12,9 km/h (3 Bft) 93,62 %
01.11.2018 11:30 9,9 C 10,0 C 8,9 C 82 % 1008,0 hPa 0,0 l/m 0 min 0 min 120 W/m 12,9 km/h (3 Bft) 93,48 %
01.11.2018 11:32 10,0 C 10,0 C 8,9 C 83 % 1008,2 hPa 0,0 l/m 0 min 0 min 117 W/m 9,7 km/h (2 Bft) 93,62 %
01.11.2018 11:34 10,0 C 10,0 C 8,9 C 83 % 1008,2 hPa 0,0 l/m 0 min 0 min 112 W/m 12,9 km/h (3 Bft) 93,62 %
01.11.2018 11:38 10,1 C 10,0 C 8,9 C 83 % 1008,1 hPa 0,0 l/m 0 min 0 min 104 W/m 12,9 km/h (3 Bft) 95,74 %
01.11.2018 11:40 10,1 C 10,0 C 8,3 C 83 % 1008,2 hPa 0,0 l/m 0 min 0 min 98 W/m 16,1 km/h (3 Bft) 95,74 %
01.11.2018 11:42 10,1 C 10,0 C 8,9 C 83 % 1008,2 hPa 0,0 l/m 0 min 0 min 99 W/m 12,9 km/h (3 Bft) 93,62 %
01.11.2018 11:44 10,1 C 10,0 C 8,9 C 83 % 1008,1 hPa 0,0 l/m 0 min 0 min 102 W/m 12,9 km/h (3 Bft) 95,74 %
01.11.2018 11:46 10,1 C 10,0 C 8,9 C 83 % 1008,1 hPa 0,0 l/m 0 min 0 min 102 W/m 12,9 km/h (3 Bft) 93,62 %
01.11.2018 11:48 10,1 C 10,0 C 8,9 C 82 % 1008,1 hPa 0,0 l/m 0 min 0 min 101 W/m 9,7 km/h (2 Bft) 91,49 %
01.11.2018 11:50 10,1 C 10,0 C 8,9 C 82 % 1008,2 hPa 0,0 l/m 0 min 0 min 98 W/m 12,9 km/h (3 Bft) 95,65 %
01.11.2018 11:52 10,1 C 10,0 C 8,9 C 82 % 1008,1 hPa 0,0 l/m 0 min 0 min 95 W/m 12,9 km/h (3 Bft) 95,74 %
01.11.2018 11:54 10,1 C 10,0 C 8,9 C 82 % 1008,1 hPa 0,0 l/m 0 min 0 min 95 W/m 16,1 km/h (3 Bft) 95,74 %
01.11.2018 11:56 10,1 C 10,0 C 8,9 C 82 % 1008,2 hPa 0,0 l/m 0 min 0 min 97 W/m 12,9 km/h (3 Bft) 91,49 %
01.11.2018 11:58 10,1 C 10,0 C 8,9 C 82 % 1008,2 hPa 0,0 l/m 0 min 0 min 98 W/m 12,9 km/h (3 Bft) 93,62 %
01.11.2018 12:00 10,1 C 10,0 C 8,9 C 82 % 1008,2 hPa 0,0 l/m 0 min 0 min 99 W/m 12,9 km/h (3 Bft) 95,74 %
01.11.2018 12:02 10,1 C 10,0 C 8,9 C 82 % 1008,2 hPa 0,0 l/m 0 min 0 min 103 W/m 12,9 km/h (3 Bft) 93,48 %
01.11.2018 12:04 10,1 C 10,0 C 8,9 C 82 % 1008,2 hPa 0,0 l/m 0 min 0 min 107 W/m 9,7 km/h (2 Bft) 95,74 %
01.11.2018 12:08 10,1 C 10,0 C 8,9 C 82 % 1008,1 hPa 0,0 l/m 0 min 0 min 112 W/m 12,9 km/h (3 Bft) 95,74 %
01.11.2018 12:10 10,1 C 10,0 C 8,9 C 82 % 1008,1 hPa 0,0 l/m 0 min 0 min 113 W/m 9,7 km/h (2 Bft) 95,74 %
01.11.2018 12:12 10,1 C 10,0 C 8,9 C 82 % 1008,1 hPa 0,0 l/m 0 min 0 min 114 W/m 12,9 km/h (3 Bft) 97,87 %
01.11.2018 12:14 10,1 C 10,0 C 8,9 C 82 % 1007,9 hPa 0,0 l/m 0 min 0 min 118 W/m 12,9 km/h (3 Bft) 97,83 %
01.11.2018 12:16 10,1 C 10,0 C 8,9 C 82 % 1008,0 hPa 0,0 l/m 0 min 0 min 121 W/m 12,9 km/h (3 Bft) 97,87 %
01.11.2018 12:18 10,1 C 10,0 C 8,9 C 82 % 1007,9 hPa 0,0 l/m 0 min 0 min 122 W/m 6,4 km/h (2 Bft) 95,74 %
01.11.2018 12:20 10,1 C 10,0 C 8,9 C 82 % 1007,8 hPa 0,0 l/m 0 min 0 min 123 W/m 12,9 km/h (3 Bft) 95,74 %
01.11.2018 12:22 10,2 C 10,0 C 8,9 C 82 % 1007,9 hPa 0,0 l/m 0 min 0 min 122 W/m 9,7 km/h (2 Bft) 97,87 %
01.11.2018 12:24 10,2 C 10,0 C 8,9 C 82 % 1007,8 hPa 0,0 l/m 0 min 0 min 121 W/m 16,1 km/h (3 Bft) 97,87 %
01.11.2018 12:26 10,2 C 10,0 C 8,9 C 81 % 1007,7 hPa 0,0 l/m 0 min 0 min 119 W/m 12,9 km/h (3 Bft) 97,83 %
01.11.2018 12:28 10,2 C 10,0 C 8,9 C 81 % 1007,8 hPa 0,0 l/m 0 min 0 min 116 W/m 12,9 km/h (3 Bft) 97,87 %
01.11.2018 12:30 10,2 C 10,0 C 8,9 C 81 % 1007,7 hPa 0,0 l/m 0 min 0 min 114 W/m 9,7 km/h (2 Bft) 97,87 %
01.11.2018 12:32 10,2 C 10,0 C 8,9 C 81 % 1007,8 hPa 0,0 l/m 0 min 0 min 112 W/m 12,9 km/h (3 Bft) 97,87 %
01.11.2018 12:34 10,2 C 10,0 C 8,9 C 81 % 1007,7 hPa 0,0 l/m 0 min 0 min 111 W/m 12,9 km/h (3 Bft) 97,87 %
01.11.2018 12:38 10,2 C 10,0 C 8,9 C 81 % 1007,7 hPa 0,0 l/m 0 min 0 min 109 W/m 12,9 km/h (3 Bft) 97,85 %
01.11.2018 12:40 10,2 C 10,0 C 8,9 C 81 % 1007,6 hPa 0,0 l/m 0 min 0 min 104 W/m 12,9 km/h (3 Bft) 97,87 %
01.11.2018 12:42 10,2 C 10,0 C 8,9 C 81 % 1007,6 hPa 0,0 l/m 0 min 0 min 100 W/m 9,7 km/h (2 Bft) 95,74 %
01.11.2018 12:44 10,2 C 10,0 C 8,9 C 81 % 1007,5 hPa 0,0 l/m 0 min 0 min 94 W/m 9,7 km/h (2 Bft) 100,00 %
01.11.2018 12:46 10,2 C 10,0 C 8,9 C 81 % 1007,5 hPa 0,0 l/m 0 min 0 min 89 W/m 9,7 km/h (2 Bft) 100,00 %
01.11.2018 12:48 10,2 C 10,0 C 8,9 C 81 % 1007,5 hPa 0,0 l/m 0 min 0 min 84 W/m 9,7 km/h (2 Bft) 100,00 %
01.11.2018 12:50 10,2 C 10,0 C 8,9 C 81 % 1007,6 hPa 0,0 l/m 0 min 0 min 79 W/m 9,7 km/h (2 Bft) 100,00 %
01.11.2018 12:52 10,2 C 10,0 C 8,9 C 81 % 1007,5 hPa 0,0 l/m 0 min 0 min 76 W/m 12,9 km/h (3 Bft) 97,87 %
01.11.2018 12:54 10,2 C 10,0 C 8,9 C 81 % 1007,5 hPa 0,0 l/m 0 min 0 min 76 W/m 9,7 km/h (2 Bft) 100,00 %
01.11.2018 12:56 10,2 C 10,0 C 8,9 C 81 % 1007,5 hPa 0,0 l/m 0 min 0 min 74 W/m 12,9 km/h (3 Bft) 100,00 %
01.11.2018 12:58 10,2 C 10,0 C 8,9 C 81 % 1007,5 hPa 0,0 l/m 0 min 0 min 74 W/m 16,1 km/h (3 Bft) 100,00 %
01.11.2018 13:00 10,2 C 10,0 C 8,9 C 81 % 1007,5 hPa 0,0 l/m 0 min 0 min 74 W/m 9,7 km/h (2 Bft) 100,00 %
01.11.2018 13:02 10,2 C 10,0 C 8,9 C 81 % 1007,5 hPa 0,0 l/m 0 min 0 min 74 W/m 12,9 km/h (3 Bft) 100,00 %
01.11.2018 13:04 10,2 C 10,0 C 8,9 C 82 % 1007,5 hPa 0,0 l/m 0 min 0 min 74 W/m 12,9 km/h (3 Bft) 100,00 %
01.11.2018 13:08 10,2 C 10,0 C 8,9 C 82 % 1007,5 hPa 0,0 l/m 0 min 0 min 73 W/m 16,1 km/h (3 Bft) 98,94 %
01.11.2018 13:10 10,2 C 10,0 C 8,9 C 82 % 1007,6 hPa 0,0 l/m 0 min 0 min 73 W/m 9,7 km/h (2 Bft) 97,87 %
01.11.2018 13:12 10,2 C 10,0 C 8,9 C 82 % 1007,6 hPa 0,0 l/m 0 min 0 min 75 W/m 16,1 km/h (3 Bft) 97,83 %
01.11.2018 13:14 10,2 C 10,0 C 8,9 C 82 % 1007,6 hPa 0,0 l/m 0 min 0 min 76 W/m 12,9 km/h (3 Bft) 100,00 %
01.11.2018 13:16 10,1 C 10,0 C 8,9 C 82 % 1007,6 hPa 0,0 l/m 0 min 0 min 77 W/m 16,1 km/h (3 Bft) 100,00 %
01.11.2018 13:18 10,2 C 10,0 C 8,9 C 82 % 1007,6 hPa 0,0 l/m 0 min 0 min 77 W/m 12,9 km/h (3 Bft) 89,36 %
01.11.2018 13:20 10,1 C 10,0 C 8,9 C 82 % 1007,6 hPa 0,0 l/m 0 min 0 min 79 W/m 9,7 km/h (2 Bft) 100,00 %
01.11.2018 13:22 10,1 C 10,0 C 8,9 C 82 % 1007,6 hPa 0,0 l/m 0 min 0 min 83 W/m 12,9 km/h (3 Bft) 95,74 %
01.11.2018 13:24 10,2 C 10,0 C 8,9 C 82 % 1007,6 hPa 0,0 l/m 0 min 0 min 85 W/m 9,7 km/h (2 Bft) 97,83 %
01.11.2018 13:26 10,2 C 10,0 C 8,9 C 83 % 1007,6 hPa 0,0 l/m 0 min 0 min 87 W/m 9,7 km/h (2 Bft) 100,00 %
01.11.2018 13:28 10,2 C 10,0 C 8,9 C 83 % 1007,7 hPa 0,0 l/m 0 min 0 min 88 W/m 6,4 km/h (2 Bft) 100,00 %
01.11.2018 13:30 10,2 C 10,0 C 8,9 C 83 % 1007,6 hPa 0,0 l/m 0 min 0 min 88 W/m 12,9 km/h (3 Bft) 97,87 %
01.11.2018 13:32 10,2 C 10,0 C 8,9 C 83 % 1007,7 hPa 0,0 l/m 0 min 0 min 87 W/m 12,9 km/h (3 Bft) 100,00 %
01.11.2018 13:34 10,2 C 10,0 C 8,9 C 83 % 1007,6 hPa 0,0 l/m 0 min 0 min 84 W/m 16,1 km/h (3 Bft) 100,00 %
01.11.2018 13:38 10,2 C 10,0 C 8,9 C 83 % 1007,6 hPa 0,0 l/m 0 min 0 min 83 W/m 12,9 km/h (3 Bft) 95,70 %
01.11.2018 13:40 10,2 C 10,0 C 8,9 C 83 % 1007,7 hPa 0,0 l/m 0 min 0 min 84 W/m 6,4 km/h (2 Bft) 100,00 %
01.11.2018 13:42 10,2 C 10,0 C 8,9 C 83 % 1007,7 hPa 0,0 l/m 0 min 0 min 84 W/m 6,4 km/h (2 Bft) 100,00 %
01.11.2018 13:44 10,2 C 10,0 C 8,9 C 83 % 1007,6 hPa 0,0 l/m 0 min 0 min 86 W/m 6,4 km/h (2 Bft) 100,00 %
01.11.2018 13:46 10,2 C 10,0 C 8,9 C 83 % 1007,6 hPa 0,0 l/m 0 min 0 min 86 W/m 6,4 km/h (2 Bft) 97,87 %
01.11.2018 13:48 10,2 C 10,0 C 8,9 C 83 % 1007,6 hPa 0,0 l/m 0 min 0 min 86 W/m 9,7 km/h (2 Bft) 100,00 %
01.11.2018 13:50 10,2 C 10,0 C 8,9 C 83 % 1007,5 hPa 0,0 l/m 0 min 0 min 85 W/m 9,7 km/h (2 Bft) 97,87 %
01.11.2018 13:52 10,2 C 10,0 C 8,9 C 83 % 1007,6 hPa 0,0 l/m 0 min 0 min 83 W/m 9,7 km/h (2 Bft) 97,87 %
01.11.2018 13:54 10,2 C 10,0 C 8,9 C 83 % 1007,6 hPa 0,0 l/m 0 min 0 min 80 W/m 12,9 km/h (3 Bft) 97,87 %
01.11.2018 13:56 10,2 C 10,0 C 8,9 C 83 % 1007,6 hPa 0,0 l/m 0 min 0 min 78 W/m 9,7 km/h (2 Bft) 97,87 %
01.11.2018 13:58 10,2 C 10,0 C 8,9 C 83 % 1007,6 hPa 0,0 l/m 0 min 0 min 77 W/m 6,4 km/h (2 Bft) 95,74 %
01.11.2018 14:00 10,3 C 10,0 C 8,9 C 83 % 1007,6 hPa 0,0 l/m 0 min 0 min 76 W/m 9,7 km/h (2 Bft) 95,65 %
01.11.2018 14:02 10,3 C 10,0 C 8,9 C 83 % 1007,6 hPa 0,0 l/m 0 min 0 min 77 W/m 9,7 km/h (2 Bft) 93,62 %
01.11.2018 14:04 10,3 C 10,0 C 8,9 C 83 % 1007,6 hPa 0,0 l/m 0 min 0 min 77 W/m 9,7 km/h (2 Bft) 93,62 %
01.11.2018 14:08 10,3 C 10,0 C 8,9 C 82 % 1007,6 hPa 0,0 l/m 0 min 0 min 74 W/m 9,7 km/h (2 Bft) 95,74 %
01.11.2018 14:10 10,3 C 10,0 C 8,9 C 82 % 1007,6 hPa 0,0 l/m 0 min 2 min 68 W/m 9,7 km/h (2 Bft) 95,74 %
01.11.2018 14:12 10,3 C 10,0 C 8,9 C 83 % 1007,6 hPa 0,0 l/m 0 min 2 min 65 W/m 6,4 km/h (2 Bft) 95,65 %
01.11.2018 14:14 10,3 C 10,0 C 8,9 C 83 % 1007,6 hPa 0,0 l/m 0 min 2 min 62 W/m 9,7 km/h (2 Bft) 93,62 %
01.11.2018 14:16 10,3 C 9,4 C 8,9 C 83 % 1007,6 hPa 0,0 l/m 0 min 0 min 58 W/m 12,9 km/h (3 Bft) 95,74 %
01.11.2018 14:18 10,3 C 9,4 C 8,9 C 83 % 1007,6 hPa 0,0 l/m 0 min 2 min 55 W/m 9,7 km/h (2 Bft) 95,74 %
01.11.2018 14:20 10,3 C 9,4 C 8,9 C 83 % 1007,6 hPa 0,0 l/m 0 min 2 min 53 W/m 12,9 km/h (3 Bft) 95,74 %
01.11.2018 14:22 10,3 C 9,4 C 8,3 C 83 % 1007,6 hPa 0,0 l/m 0 min 2 min 50 W/m 9,7 km/h (2 Bft) 95,65 %
01.11.2018 14:24 10,3 C 9,4 C 8,3 C 83 % 1007,6 hPa 0,0 l/m 0 min 2 min 47 W/m 9,7 km/h (2 Bft) 95,74 %
01.11.2018 14:26 10,3 C 9,4 C 8,3 C 83 % 1007,6 hPa 0,0 l/m 0 min 2 min 47 W/m 9,7 km/h (2 Bft) 93,62 %
01.11.2018 14:28 10,3 C 9,4 C 8,3 C 83 % 1007,6 hPa 0,0 l/m 0 min 0 min 46 W/m 6,4 km/h (2 Bft) 95,74 %
01.11.2018 14:30 10,3 C 9,4 C 8,3 C 83 % 1007,6 hPa 0,0 l/m 0 min 0 min 46 W/m 9,7 km/h (2 Bft) 93,62 %
01.11.2018 14:32 10,3 C 9,4 C 8,3 C 84 % 1007,6 hPa 0,0 l/m 0 min 2 min 44 W/m 6,4 km/h (2 Bft) 91,49 %
01.11.2018 14:34 10,3 C 9,4 C 8,3 C 84 % 1007,6 hPa 0,0 l/m 0 min 2 min 41 W/m 9,7 km/h (2 Bft) 93,48 %
01.11.2018 14:38 10,3 C 8,9 C 8,3 C 84 % 1007,8 hPa 0,0 l/m 0 min 0 min 38 W/m 9,7 km/h (2 Bft) 92,55 %
01.11.2018 14:40 10,2 C 8,9 C 8,3 C 84 % 1007,8 hPa 0,0 l/m 0 min 0 min 34 W/m 9,7 km/h (2 Bft) 93,62 %
01.11.2018 14:42 10,2 C 9,4 C 8,3 C 84 % 1007,7 hPa 0,0 l/m 0 min 0 min 32 W/m 9,7 km/h (2 Bft) 95,74 %
01.11.2018 14:44 10,2 C 9,4 C 8,3 C 84 % 1007,8 hPa 0,0 l/m 0 min 2 min 29 W/m 9,7 km/h (2 Bft) 95,74 %
01.11.2018 14:46 10,2 C 9,4 C 8,3 C 84 % 1007,8 hPa 0,0 l/m 0 min 0 min 28 W/m 9,7 km/h (2 Bft) 95,65 %
01.11.2018 14:48 10,2 C 8,9 C 8,3 C 84 % 1007,9 hPa 0,0 l/m 0 min 0 min 28 W/m 6,4 km/h (2 Bft) 97,87 %
01.11.2018 14:50 10,2 C 8,9 C 8,3 C 84 % 1007,8 hPa 0,0 l/m 0 min 2 min 29 W/m 9,7 km/h (2 Bft) 95,74 %
01.11.2018 14:52 10,2 C 8,9 C 8,3 C 84 % 1007,8 hPa 0,0 l/m 0 min 2 min 30 W/m 9,7 km/h (2 Bft) 97,87 %
01.11.2018 14:54 10,1 C 8,9 C 8,3 C 84 % 1007,9 hPa 0,0 l/m 0 min 2 min 30 W/m 12,9 km/h (3 Bft) 95,74 %
01.11.2018 14:56 10,1 C 8,9 C 8,3 C 85 % 1007,8 hPa 0,0 l/m 0 min 2 min 32 W/m 9,7 km/h (2 Bft) 97,87 %
01.11.2018 14:58 10,1 C 8,3 C 7,8 C 85 % 1007,9 hPa 0,0 l/m 0 min 2 min 32 W/m 9,7 km/h (2 Bft) 97,83 %
01.11.2018 15:00 10,1 C 8,3 C 7,8 C 85 % 1007,9 hPa 0,0 l/m 0 min 2 min 31 W/m 9,7 km/h (2 Bft) 95,74 %
01.11.2018 15:02 10,0 C 8,3 C 7,8 C 85 % 1007,9 hPa 0,0 l/m 0 min 2 min 28 W/m 12,9 km/h (3 Bft) 95,74 %
01.11.2018 15:04 10,0 C 8,3 C 7,8 C 85 % 1007,9 hPa 0,0 l/m 0 min 2 min 28 W/m 9,7 km/h (2 Bft) 97,87 %
01.11.2018 15:08 9,9 C 8,3 C 7,8 C 86 % 1007,9 hPa 0,0 l/m 0 min 4 min 30 W/m 6,4 km/h (2 Bft) 95,74 %
01.11.2018 15:10 9,9 C 8,3 C 7,8 C 86 % 1007,9 hPa 0,0 l/m 0 min 2 min 28 W/m 6,4 km/h (2 Bft) 97,83 %
01.11.2018 15:12 9,9 C 8,3 C 7,8 C 86 % 1008,0 hPa 0,0 l/m 0 min 2 min 25 W/m 9,7 km/h (2 Bft) 97,87 %
01.11.2018 15:14 9,9 C 8,3 C 7,8 C 86 % 1008,0 hPa 0,0 l/m 0 min 2 min 23 W/m 6,4 km/h (2 Bft) 97,87 %
01.11.2018 15:16 9,9 C 7,8 C 7,8 C 87 % 1008,0 hPa 0,0 l/m 0 min 2 min 21 W/m 9,7 km/h (2 Bft) 95,74 %
01.11.2018 15:18 9,9 C 7,8 C 7,8 C 87 % 1007,9 hPa 0,0 l/m 0 min 2 min 21 W/m 9,7 km/h (2 Bft) 97,87 %
01.11.2018 15:20 9,9 C 7,8 C 7,8 C 87 % 1008,0 hPa 0,0 l/m 0 min 2 min 20 W/m 12,9 km/h (3 Bft) 95,74 %
01.11.2018 15:22 9,8 C 7,8 C 7,8 C 87 % 1007,9 hPa 0,2 l/m 0 min 2 min 19 W/m 9,7 km/h (2 Bft) 97,83 %
01.11.2018 15:24 9,8 C 7,8 C 7,8 C 87 % 1007,9 hPa 0,0 l/m 0 min 2 min 18 W/m 9,7 km/h (2 Bft) 97,87 %
01.11.2018 15:26 9,8 C 7,8 C 7,8 C 88 % 1008,0 hPa 0,0 l/m 0 min 2 min 18 W/m 6,4 km/h (2 Bft) 97,87 %
01.11.2018 15:28 9,8 C 7,8 C 7,8 C 88 % 1007,9 hPa 0,0 l/m 0 min 2 min 16 W/m 9,7 km/h (2 Bft) 97,87 %
01.11.2018 15:30 9,8 C 7,8 C 7,8 C 88 % 1008,0 hPa 0,0 l/m 0 min 2 min 16 W/m 9,7 km/h (2 Bft) 95,74 %
01.11.2018 15:32 9,7 C 7,8 C 7,8 C 88 % 1008,0 hPa 0,0 l/m 0 min 2 min 14 W/m 6,4 km/h (2 Bft) 97,83 %
01.11.2018 15:34 9,7 C 7,8 C 7,8 C 88 % 1008,0 hPa 0,2 l/m 0 min 2 min 14 W/m 9,7 km/h (2 Bft) 91,49 %
01.11.2018 15:38 9,7 C 7,8 C 7,2 C 89 % 1008,1 hPa 0,0 l/m 0 min 4 min 14 W/m 6,4 km/h (2 Bft) 85,11 %
01.11.2018 15:40 9,6 C 7,8 C 7,2 C 89 % 1008,0 hPa 0,2 l/m 0 min 2 min 15 W/m 9,7 km/h (2 Bft) 61,70 %
01.11.2018 15:42 9,6 C 7,8 C 7,2 C 89 % 1008,1 hPa 0,0 l/m 0 min 2 min 16 W/m 6,4 km/h (2 Bft) 85,11 %
01.11.2018 15:44 9,6 C 7,8 C 7,2 C 89 % 1008,2 hPa 0,0 l/m 0 min 2 min 16 W/m 9,7 km/h (2 Bft) 86,96 %
01.11.2018 15:46 9,6 C 7,8 C 7,2 C 89 % 1008,2 hPa 0,0 l/m 0 min 2 min 16 W/m 6,4 km/h (2 Bft) 89,36 %
01.11.2018 15:48 9,5 C 7,8 C 7,2 C 89 % 1008,1 hPa 0,0 l/m 0 min 2 min 14 W/m 9,7 km/h (2 Bft) 78,72 %
01.11.2018 15:50 9,5 C 7,8 C 7,2 C 90 % 1008,1 hPa 0,2 l/m 0 min 2 min 13 W/m 16,1 km/h (3 Bft) 72,34 %
01.11.2018 15:52 9,4 C 7,8 C 7,2 C 90 % 1008,2 hPa 0,0 l/m 0 min 2 min 12 W/m 6,4 km/h (2 Bft) 85,11 %
01.11.2018 15:54 9,4 C 7,8 C 7,2 C 90 % 1008,1 hPa 0,0 l/m 0 min 2 min 11 W/m 6,4 km/h (2 Bft) 87,23 %
01.11.2018 15:56 9,4 C 7,8 C 7,2 C 90 % 1008,2 hPa 0,2 l/m 0 min 2 min 11 W/m 6,4 km/h (2 Bft) 73,91 %
01.11.2018 15:58 9,4 C 7,8 C 7,2 C 90 % 1008,1 hPa 0,0 l/m 0 min 2 min 11 W/m 6,4 km/h (2 Bft) 80,85 %
01.11.2018 16:00 9,3 C 7,8 C 7,2 C 90 % 1008,1 hPa 0,2 l/m 0 min 2 min 12 W/m 9,7 km/h (2 Bft) 95,74 %
01.11.2018 16:02 9,3 C 7,8 C 7,2 C 90 % 1008,1 hPa 0,0 l/m 0 min 2 min 12 W/m 12,9 km/h (3 Bft) 97,87 %
01.11.2018 16:04 9,3 C 7,8 C 7,2 C 91 % 1008,1 hPa 0,0 l/m 0 min 2 min 12 W/m 6,4 km/h (2 Bft) 97,87 %
01.11.2018 16:08 9,2 C 7,8 C 7,2 C 91 % 1008,1 hPa 0,2 l/m 0 min 4 min 12 W/m 9,7 km/h (2 Bft) 100,00 %
01.11.2018 16:10 9,2 C 7,8 C 7,2 C 91 % 1008,1 hPa 0,0 l/m 0 min 2 min 11 W/m 6,4 km/h (2 Bft) 93,62 %
01.11.2018 16:12 9,2 C 7,8 C 7,2 C 91 % 1008,1 hPa 0,0 l/m 0 min 2 min 9 W/m 9,7 km/h (2 Bft) 97,87 %
01.11.2018 16:14 9,2 C 7,8 C 7,2 C 91 % 1008,1 hPa 0,2 l/m 0 min 2 min 9 W/m 6,4 km/h (2 Bft) 74,47 %
01.11.2018 16:16 9,1 C 7,2 C 7,2 C 91 % 1008,1 hPa 0,0 l/m 0 min 2 min 9 W/m 9,7 km/h (2 Bft) 100,00 %
01.11.2018 16:18 9,1 C 7,2 C 7,2 C 91 % 1008,0 hPa 0,0 l/m 0 min 2 min 8 W/m 6,4 km/h (2 Bft) 95,74 %
01.11.2018 16:20 9,1 C 7,2 C 7,2 C 92 % 1008,0 hPa 0,2 l/m 0 min 2 min 9 W/m 6,4 km/h (2 Bft) 89,13 %
01.11.2018 16:22 9,1 C 7,2 C 7,2 C 92 % 1008,0 hPa 0,0 l/m 0 min 2 min 9 W/m 6,4 km/h (2 Bft) 100,00 %
01.11.2018 16:24 9,1 C 7,2 C 7,2 C 92 % 1008,0 hPa 0,0 l/m 0 min 2 min 9 W/m 6,4 km/h (2 Bft) 95,74 %
01.11.2018 16:26 9,0 C 7,2 C 7,2 C 92 % 1007,9 hPa 0,0 l/m 0 min 2 min 9 W/m 9,7 km/h (2 Bft) 97,87 %
01.11.2018 16:28 9,0 C 7,2 C 7,2 C 92 % 1007,9 hPa 0,2 l/m 0 min 2 min 9 W/m 9,7 km/h (2 Bft) 100,00 %
01.11.2018 16:30 8,9 C 7,2 C 7,2 C 92 % 1007,9 hPa 0,0 l/m 0 min 2 min 9 W/m 9,7 km/h (2 Bft) 91,49 %
01.11.2018 16:32 8,9 C 7,2 C 7,2 C 92 % 1007,9 hPa 0,0 l/m 0 min 2 min 9 W/m 6,4 km/h (2 Bft) 91,30 %
01.11.2018 16:34 8,9 C 7,2 C 7,2 C 92 % 1007,8 hPa 0,0 l/m 0 min 2 min 9 W/m 12,9 km/h (3 Bft) 91,49 %
01.11.2018 16:38 8,9 C 7,8 C 7,2 C 93 % 1007,8 hPa 0,2 l/m 0 min 4 min 7 W/m 9,7 km/h (2 Bft) 96,81 %
01.11.2018 16:40 8,9 C 7,8 C 7,2 C 93 % 1007,7 hPa 0,0 l/m 0 min 2 min 7 W/m 9,7 km/h (2 Bft) 100,00 %
01.11.2018 16:42 8,9 C 7,8 C 7,2 C 93 % 1007,7 hPa 0,0 l/m 0 min 2 min 7 W/m 12,9 km/h (3 Bft) 93,62 %
01.11.2018 16:44 8,8 C 7,8 C 7,2 C 93 % 1007,7 hPa 0,0 l/m 0 min 2 min 7 W/m 9,7 km/h (2 Bft) 97,83 %
01.11.2018 16:46 8,8 C 7,8 C 7,2 C 93 % 1007,7 hPa 0,0 l/m 0 min 2 min 7 W/m 9,7 km/h (2 Bft) 93,62 %
01.11.2018 16:48 8,8 C 7,8 C 7,2 C 93 % 1007,7 hPa 0,0 l/m 0 min 2 min 5 W/m 9,7 km/h (2 Bft) 97,87 %
01.11.2018 16:50 8,8 C 7,8 C 7,2 C 93 % 1007,6 hPa 0,0 l/m 0 min 2 min 5 W/m 6,4 km/h (2 Bft) 95,74 %
01.11.2018 16:52 8,8 C 7,8 C 7,2 C 93 % 1007,6 hPa 0,0 l/m 0 min 2 min 5 W/m 9,7 km/h (2 Bft) 95,74 %
01.11.2018 16:54 8,8 C 7,8 C 7,2 C 93 % 1007,7 hPa 0,0 l/m 0 min 2 min 5 W/m 9,7 km/h (2 Bft) 95,65 %
01.11.2018 16:56 8,8 C 7,8 C 7,2 C 93 % 1007,8 hPa 0,0 l/m 0 min 2 min 5 W/m 9,7 km/h (2 Bft) 97,87 %
01.11.2018 16:58 8,8 C 7,8 C 7,2 C 93 % 1007,7 hPa 0,0 l/m 0 min 2 min 2 W/m 9,7 km/h (2 Bft) 95,74 %
01.11.2018 17:00 8,8 C 7,8 C 7,2 C 94 % 1007,6 hPa 0,0 l/m 0 min 2 min 0 W/m 9,7 km/h (2 Bft) 91,49 %
01.11.2018 17:02 8,8 C 7,8 C 7,2 C 94 % 1007,6 hPa 0,2 l/m 0 min 2 min 0 W/m 9,7 km/h (2 Bft) 95,74 %
01.11.2018 17:04 8,8 C 7,8 C 7,2 C 94 % 1007,6 hPa 0,0 l/m 0 min 2 min 0 W/m 9,7 km/h (2 Bft) 97,87 %
01.11.2018 17:08 8,7 C 7,8 C 7,2 C 94 % 1007,7 hPa 0,0 l/m 0 min 4 min 0 W/m 9,7 km/h (2 Bft) 95,70 %
01.11.2018 17:10 8,7 C 7,8 C 7,2 C 94 % 1007,6 hPa 0,0 l/m 0 min 2 min 0 W/m 12,9 km/h (3 Bft) 97,87 %
01.11.2018 17:12 8,7 C 7,8 C 7,2 C 94 % 1007,6 hPa 0,0 l/m 0 min 2 min 0 W/m 6,4 km/h (2 Bft) 97,87 %
01.11.2018 17:14 8,7 C 7,8 C 7,2 C 94 % 1007,6 hPa 0,0 l/m 0 min 2 min 0 W/m 9,7 km/h (2 Bft) 95,74 %
01.11.2018 17:16 8,7 C 7,8 C 7,2 C 94 % 1007,6 hPa 0,0 l/m 0 min 2 min 0 W/m 6,4 km/h (2 Bft) 91,49 %
01.11.2018 17:18 8,7 C 7,8 C 7,2 C 94 % 1007,6 hPa 0,0 l/m 0 min 2 min 0 W/m 6,4 km/h (2 Bft) 97,83 %
01.11.2018 17:20 8,7 C 7,8 C 7,2 C 94 % 1007,6 hPa 0,0 l/m 0 min 2 min 0 W/m 6,4 km/h (2 Bft) 97,87 %
01.11.2018 17:22 8,7 C 7,8 C 7,2 C 94 % 1007,6 hPa 0,0 l/m 0 min 2 min 0 W/m 6,4 km/h (2 Bft) 93,62 %
01.11.2018 17:24 8,7 C 7,8 C 7,2 C 94 % 1007,6 hPa 0,0 l/m 0 min 2 min 0 W/m 6,4 km/h (2 Bft) 95,74 %
01.11.2018 17:26 8,7 C 7,8 C 7,2 C 94 % 1007,6 hPa 0,0 l/m 0 min 2 min 0 W/m 6,4 km/h (2 Bft) 93,62 %
01.11.2018 17:28 8,7 C 7,8 C 7,2 C 94 % 1007,6 hPa 0,0 l/m 0 min 2 min 0 W/m 6,4 km/h (2 Bft) 95,74 %
01.11.2018 17:30 8,7 C 7,8 C 7,2 C 94 % 1007,5 hPa 0,0 l/m 0 min 2 min 0 W/m 6,4 km/h (2 Bft) 97,83 %
01.11.2018 17:32 8,7 C 7,8 C 7,2 C 94 % 1007,5 hPa 0,0 l/m 0 min 2 min 0 W/m 6,4 km/h (2 Bft) 93,62 %
01.11.2018 17:34 8,7 C 7,8 C 7,2 C 94 % 1007,5 hPa 0,0 l/m 0 min 2 min 0 W/m 6,4 km/h (2 Bft) 89,36 %
01.11.2018 17:38 8,7 C 7,8 C 7,2 C 95 % 1007,5 hPa 0,0 l/m 0 min 4 min 0 W/m 6,4 km/h (2 Bft) 94,68 %
01.11.2018 17:40 8,7 C 7,8 C 7,2 C 95 % 1007,5 hPa 0,0 l/m 0 min 2 min 0 W/m 6,4 km/h (2 Bft) 95,74 %
01.11.2018 17:42 8,7 C 7,8 C 7,2 C 95 % 1007,5 hPa 0,0 l/m 0 min 2 min 0 W/m 6,4 km/h (2 Bft) 93,48 %
01.11.2018 17:44 8,7 C 7,8 C 7,2 C 95 % 1007,5 hPa 0,2 l/m 0 min 2 min 0 W/m 9,7 km/h (2 Bft) 95,74 %
01.11.2018 17:46 8,7 C 7,8 C 7,2 C 95 % 1007,6 hPa 0,0 l/m 0 min 2 min 0 W/m 3,2 km/h (1 Bft) 95,74 %
01.11.2018 17:48 8,7 C 7,8 C 7,2 C 95 % 1007,5 hPa 0,0 l/m 0 min 2 min 0 W/m 6,4 km/h (2 Bft) 95,74 %
01.11.2018 17:50 8,7 C 7,8 C 7,2 C 95 % 1007,5 hPa 0,0 l/m 0 min 2 min 0 W/m 9,7 km/h (2 Bft) 93,62 %
01.11.2018 17:52 8,7 C 7,8 C 7,2 C 95 % 1007,5 hPa 0,0 l/m 0 min 2 min 0 W/m 6,4 km/h (2 Bft) 93,62 %
01.11.2018 17:54 8,7 C 7,8 C 7,2 C 95 % 1007,4 hPa 0,0 l/m 0 min 2 min 0 W/m 9,7 km/h (2 Bft) 95,65 %
01.11.2018 17:56 8,7 C 7,8 C 7,2 C 95 % 1007,4 hPa 0,2 l/m 0 min 2 min 0 W/m 9,7 km/h (2 Bft) 95,74 %
01.11.2018 17:58 8,7 C 7,8 C 7,2 C 95 % 1007,5 hPa 0,0 l/m 0 min 2 min 0 W/m 6,4 km/h (2 Bft) 91,49 %
01.11.2018 18:00 8,7 C 7,8 C 7,2 C 95 % 1007,6 hPa 0,0 l/m 0 min 2 min 0 W/m 6,4 km/h (2 Bft) 93,62 %
01.11.2018 18:02 8,7 C 7,8 C 7,2 C 95 % 1007,6 hPa 0,0 l/m 0 min 2 min 0 W/m 6,4 km/h (2 Bft) 93,62 %
01.11.2018 18:04 8,7 C 7,8 C 7,2 C 95 % 1007,6 hPa 0,0 l/m 0 min 2 min 0 W/m 3,2 km/h (1 Bft) 95,74 %
01.11.2018 18:08 8,7 C 7,8 C 7,2 C 95 % 1007,6 hPa 0,0 l/m 0 min 4 min 0 W/m 6,4 km/h (2 Bft) 94,62 %
01.11.2018 18:10 8,7 C 7,8 C 7,2 C 95 % 1007,6 hPa 0,0 l/m 0 min 2 min 0 W/m 6,4 km/h (2 Bft) 97,87 %
01.11.2018 18:12 8,6 C 7,8 C 7,2 C 95 % 1007,6 hPa 0,0 l/m 0 min 2 min 0 W/m 6,4 km/h (2 Bft) 97,87 %
01.11.2018 18:14 8,7 C 7,8 C 7,2 C 95 % 1007,7 hPa 0,0 l/m 0 min 2 min 0 W/m 3,2 km/h (1 Bft) 97,87 %
01.11.2018 18:16 8,7 C 7,8 C 7,2 C 95 % 1007,7 hPa 0,0 l/m 0 min 2 min 0 W/m 9,7 km/h (2 Bft) 97,83 %
01.11.2018 18:18 8,6 C 7,8 C 7,2 C 95 % 1007,6 hPa 0,2 l/m 0 min 2 min 0 W/m 3,2 km/h (1 Bft) 97,87 %
01.11.2018 18:20 8,7 C 7,8 C 7,2 C 95 % 1007,7 hPa 0,0 l/m 0 min 0 min 0 W/m 9,7 km/h (2 Bft) 97,87 %
01.11.2018 18:22 8,7 C 7,8 C 7,2 C 95 % 1007,7 hPa 0,0 l/m 0 min 0 min 0 W/m 6,4 km/h (2 Bft) 95,74 %
01.11.2018 18:24 8,7 C 7,8 C 7,2 C 95 % 1007,7 hPa 0,0 l/m 0 min 0 min 0 W/m 9,7 km/h (2 Bft) 97,87 %
01.11.2018 18:26 8,7 C 7,8 C 7,2 C 95 % 1007,7 hPa 0,0 l/m 0 min 0 min 0 W/m 6,4 km/h (2 Bft) 97,87 %
01.11.2018 18:28 8,7 C 7,8 C 7,2 C 96 % 1007,8 hPa 0,0 l/m 0 min 0 min 0 W/m 3,2 km/h (1 Bft) 97,83 %
01.11.2018 18:30 8,7 C 7,8 C 7,2 C 96 % 1007,9 hPa 0,0 l/m 0 min 0 min 0 W/m 3,2 km/h (1 Bft) 97,87 %
01.11.2018 18:32 8,7 C 7,8 C 7,2 C 96 % 1007,9 hPa 0,0 l/m 0 min 0 min 0 W/m 12,9 km/h (3 Bft) 97,87 %
01.11.2018 18:34 8,7 C 7,8 C 7,8 C 96 % 1007,9 hPa 0,0 l/m 0 min 0 min 0 W/m 12,9 km/h (3 Bft) 100,00 %
01.11.2018 18:38 8,7 C 7,8 C 7,2 C 96 % 1008,0 hPa 0,0 l/m 0 min 0 min 0 W/m 12,9 km/h (3 Bft) 97,87 %
01.11.2018 18:40 8,7 C 7,8 C 7,2 C 96 % 1008,0 hPa 0,0 l/m 0 min 0 min 0 W/m 6,4 km/h (2 Bft) 100,00 %
01.11.2018 18:42 8,7 C 7,8 C 7,2 C 96 % 1008,0 hPa 0,0 l/m 0 min 0 min 0 W/m 6,4 km/h (2 Bft) 100,00 %
01.11.2018 18:44 8,7 C 7,8 C 7,2 C 96 % 1008,0 hPa 0,0 l/m 0 min 0 min 0 W/m 0,0 km/h (0 Bft) 97,87 %
01.11.2018 18:46 8,7 C 7,8 C 7,2 C 96 % 1008,1 hPa 0,0 l/m 0 min 0 min 0 W/m 6,4 km/h (2 Bft) 97,87 %
01.11.2018 18:48 8,7 C 7,8 C 7,2 C 96 % 1008,1 hPa 0,0 l/m 0 min 0 min 0 W/m 6,4 km/h (2 Bft) 100,00 %
01.11.2018 18:50 8,7 C 7,8 C 7,2 C 96 % 1008,2 hPa 0,0 l/m 0 min 0 min 0 W/m 9,7 km/h (2 Bft) 100,00 %
01.11.2018 18:52 8,7 C 7,8 C 7,2 C 96 % 1008,1 hPa 0,0 l/m 0 min 0 min 0 W/m 9,7 km/h (2 Bft) 100,00 %
01.11.2018 18:54 8,7 C 7,8 C 7,2 C 96 % 1008,2 hPa 0,0 l/m 0 min 0 min 0 W/m 6,4 km/h (2 Bft) 97,87 %
01.11.2018 18:56 8,7 C 7,8 C 7,2 C 96 % 1008,1 hPa 0,0 l/m 0 min 0 min 0 W/m 3,2 km/h (1 Bft) 97,87 %
01.11.2018 18:58 8,7 C 7,8 C 7,2 C 96 % 1008,1 hPa 0,0 l/m 0 min 0 min 0 W/m 6,4 km/h (2 Bft) 95,74 %
01.11.2018 19:00 8,7 C 7,8 C 7,2 C 96 % 1008,2 hPa 0,0 l/m 0 min 0 min 0 W/m 9,7 km/h (2 Bft) 97,87 %
01.11.2018 19:02 8,7 C 7,8 C 7,2 C 96 % 1008,2 hPa 0,0 l/m 0 min 0 min 0 W/m 12,9 km/h (3 Bft) 100,00 %
01.11.2018 19:04 8,7 C 7,8 C 7,2 C 96 % 1008,2 hPa 0,0 l/m 0 min 0 min 0 W/m 12,9 km/h (3 Bft) 95,65 %
01.11.2018 19:08 8,7 C 7,8 C 7,2 C 96 % 1008,1 hPa 0,0 l/m 0 min 0 min 0 W/m 9,7 km/h (2 Bft) 97,87 %
01.11.2018 19:10 8,7 C 7,8 C 7,2 C 96 % 1008,0 hPa 0,0 l/m 0 min 0 min 0 W/m 9,7 km/h (2 Bft) 100,00 %
01.11.2018 19:12 8,7 C 7,8 C 7,2 C 96 % 1008,0 hPa 0,0 l/m 0 min 0 min 0 W/m 9,7 km/h (2 Bft) 97,87 %
01.11.2018 19:14 8,7 C 7,8 C 7,2 C 96 % 1008,0 hPa 0,0 l/m 0 min 0 min 0 W/m 9,7 km/h (2 Bft) 100,00 %
01.11.2018 19:16 8,6 C 7,8 C 7,2 C 96 % 1007,9 hPa 0,0 l/m 0 min 0 min 0 W/m 9,7 km/h (2 Bft) 97,83 %
01.11.2018 19:18 8,6 C 7,8 C 7,2 C 96 % 1007,9 hPa 0,0 l/m 0 min 0 min 0 W/m 9,7 km/h (2 Bft) 97,87 %
01.11.2018 19:20 8,6 C 7,8 C 7,2 C 96 % 1007,9 hPa 0,0 l/m 0 min 0 min 0 W/m 16,1 km/h (3 Bft) 100,00 %
01.11.2018 19:22 8,6 C 7,8 C 7,2 C 96 % 1007,9 hPa 0,0 l/m 0 min 0 min 0 W/m 9,7 km/h (2 Bft) 100,00 %
01.11.2018 19:24 8,6 C 7,8 C 7,2 C 96 % 1008,0 hPa 0,0 l/m 0 min 0 min 0 W/m 9,7 km/h (2 Bft) 100,00 %
01.11.2018 19:26 8,6 C 7,8 C 7,2 C 96 % 1008,0 hPa 0,0 l/m 0 min 0 min 0 W/m 6,4 km/h (2 Bft) 100,00 %
01.11.2018 19:28 8,6 C 7,8 C 7,2 C 96 % 1008,0 hPa 0,0 l/m 0 min 0 min 0 W/m 3,2 km/h (1 Bft) 97,87 %
01.11.2018 19:30 8,6 C 7,8 C 7,2 C 96 % 1008,0 hPa 0,0 l/m 0 min 0 min 0 W/m 12,9 km/h (3 Bft) 97,87 %
01.11.2018 19:32 8,6 C 7,8 C 7,2 C 96 % 1008,0 hPa 0,0 l/m 0 min 0 min 0 W/m 9,7 km/h (2 Bft) 97,87 %
01.11.2018 19:34 8,6 C 7,8 C 7,2 C 96 % 1008,0 hPa 0,0 l/m 0 min 0 min 0 W/m 12,9 km/h (3 Bft) 97,87 %
01.11.2018 19:38 8,6 C 7,8 C 7,2 C 96 % 1008,0 hPa 0,0 l/m 0 min 0 min 0 W/m 16,1 km/h (3 Bft) 97,85 %
01.11.2018 19:40 8,6 C 7,8 C 7,2 C 96 % 1008,1 hPa 0,0 l/m 0 min 0 min 0 W/m 9,7 km/h (2 Bft) 97,87 %
01.11.2018 19:42 8,6 C 7,8 C 7,2 C 96 % 1008,1 hPa 0,0 l/m 0 min 0 min 0 W/m 12,9 km/h (3 Bft) 95,74 %
01.11.2018 19:44 8,6 C 7,8 C 7,2 C 97 % 1008,1 hPa 0,0 l/m 0 min 0 min 0 W/m 12,9 km/h (3 Bft) 95,74 %
01.11.2018 19:46 8,6 C 7,8 C 7,2 C 97 % 1008,1 hPa 0,0 l/m 0 min 0 min 0 W/m 9,7 km/h (2 Bft) 97,87 %
01.11.2018 19:48 8,6 C 7,8 C 7,2 C 97 % 1008,1 hPa 0,0 l/m 0 min 0 min 0 W/m 12,9 km/h (3 Bft) 97,87 %
01.11.2018 19:50 8,6 C 7,8 C 7,2 C 97 % 1008,1 hPa 0,0 l/m 0 min 0 min 0 W/m 9,7 km/h (2 Bft) 95,65 %
01.11.2018 19:52 8,6 C 7,8 C 7,2 C 97 % 1008,1 hPa 0,0 l/m 0 min 0 min 0 W/m 9,7 km/h (2 Bft) 95,74 %
01.11.2018 19:54 8,6 C 7,8 C 7,2 C 97 % 1008,1 hPa 0,0 l/m 0 min 0 min 0 W/m 12,9 km/h (3 Bft) 95,74 %
01.11.2018 19:56 8,7 C 7,8 C 7,2 C 97 % 1008,1 hPa 0,0 l/m 0 min 0 min 0 W/m 6,4 km/h (2 Bft) 97,87 %
01.11.2018 19:58 8,7 C 7,8 C 7,2 C 97 % 1008,2 hPa 0,0 l/m 0 min 0 min 0 W/m 9,7 km/h (2 Bft) 95,74 %
01.11.2018 20:00 8,7 C 7,8 C 7,2 C 97 % 1008,2 hPa 0,0 l/m 0 min 0 min 0 W/m 16,1 km/h (3 Bft) 95,74 %
01.11.2018 20:02 8,7 C 7,8 C 7,2 C 97 % 1008,2 hPa 0,0 l/m 0 min 0 min 0 W/m 9,7 km/h (2 Bft) 91,30 %
01.11.2018 20:04 8,7 C 7,8 C 7,2 C 97 % 1008,2 hPa 0,0 l/m 0 min 0 min 0 W/m 9,7 km/h (2 Bft) 97,87 %
01.11.2018 20:08 8,7 C 7,8 C 7,2 C 97 % 1008,2 hPa 0,0 l/m 0 min 0 min 0 W/m 16,1 km/h (3 Bft) 97,87 %
01.11.2018 20:10 8,7 C 7,8 C 7,2 C 97 % 1008,2 hPa 0,0 l/m 0 min 0 min 0 W/m 6,4 km/h (2 Bft) 95,74 %
01.11.2018 20:12 8,7 C 7,8 C 7,2 C 97 % 1008,1 hPa 0,0 l/m 0 min 0 min 0 W/m 6,4 km/h (2 Bft) 95,74 %
01.11.2018 20:14 8,7 C 7,8 C 7,2 C 97 % 1008,1 hPa 0,0 l/m 0 min 0 min 0 W/m 9,7 km/h (2 Bft) 95,65 %
01.11.2018 20:16 8,7 C 7,8 C 7,8 C 97 % 1008,2 hPa 0,0 l/m 0 min 0 min 0 W/m 9,7 km/h (2 Bft) 95,74 %
01.11.2018 20:18 8,7 C 7,8 C 7,8 C 97 % 1008,2 hPa 0,0 l/m 0 min 0 min 0 W/m 9,7 km/h (2 Bft) 97,87 %
01.11.2018 20:20 8,7 C 7,8 C 7,8 C 97 % 1008,3 hPa 0,0 l/m 0 min 0 min 0 W/m 12,9 km/h (3 Bft) 97,87 %
01.11.2018 20:22 8,7 C 7,8 C 7,8 C 97 % 1008,2 hPa 0,0 l/m 0 min 0 min 0 W/m 9,7 km/h (2 Bft) 93,62 %
01.11.2018 20:24 8,7 C 7,8 C 7,8 C 97 % 1008,3 hPa 0,0 l/m 0 min 0 min 0 W/m 9,7 km/h (2 Bft) 97,87 %
01.11.2018 20:26 8,7 C 7,8 C 7,8 C 97 % 1008,3 hPa 0,0 l/m 0 min 0 min 0 W/m 6,4 km/h (2 Bft) 97,83 %
01.11.2018 20:28 8,7 C 7,8 C 7,8 C 97 % 1008,3 hPa 0,0 l/m 0 min 0 min 0 W/m 16,1 km/h (3 Bft) 97,87 %
01.11.2018 20:30 8,7 C 7,8 C 7,8 C 97 % 1008,3 hPa 0,0 l/m 0 min 0 min 0 W/m 9,7 km/h (2 Bft) 95,74 %
01.11.2018 20:32 8,7 C 7,8 C 7,8 C 97 % 1008,3 hPa 0,0 l/m 0 min 0 min 0 W/m 16,1 km/h (3 Bft) 93,62 %
01.11.2018 20:34 8,7 C 7,8 C 7,8 C 97 % 1008,3 hPa 0,0 l/m 0 min 0 min 0 W/m 9,7 km/h (2 Bft) 97,87 %
01.11.2018 20:38 8,7 C 7,8 C 7,8 C 97 % 1008,3 hPa 0,0 l/m 0 min 0 min 0 W/m 12,9 km/h (3 Bft) 96,77 %
01.11.2018 20:40 8,7 C 7,8 C 7,8 C 97 % 1008,3 hPa 0,0 l/m 0 min 0 min 0 W/m 9,7 km/h (2 Bft) 97,87 %
01.11.2018 20:42 8,7 C 7,8 C 7,8 C 97 % 1008,4 hPa 0,0 l/m 0 min 0 min 0 W/m 16,1 km/h (3 Bft) 97,87 %
01.11.2018 20:44 8,7 C 7,8 C 7,8 C 97 % 1008,4 hPa 0,0 l/m 0 min 0 min 0 W/m 16,1 km/h (3 Bft) 97,87 %
01.11.2018 20:46 8,7 C 7,8 C 7,8 C 97 % 1008,4 hPa 0,0 l/m 0 min 0 min 0 W/m 9,7 km/h (2 Bft) 97,87 %
01.11.2018 20:48 8,7 C 7,8 C 7,8 C 97 % 1008,5 hPa 0,0 l/m 0 min 0 min 0 W/m 16,1 km/h (3 Bft) 97,83 %
01.11.2018 20:50 8,7 C 7,8 C 7,8 C 97 % 1008,4 hPa 0,0 l/m 0 min 0 min 0 W/m 6,4 km/h (2 Bft) 95,74 %
01.11.2018 20:52 8,7 C 7,8 C 7,2 C 97 % 1008,4 hPa 0,0 l/m 0 min 0 min 0 W/m 12,9 km/h (3 Bft) 100,00 %
01.11.2018 20:54 8,7 C 7,8 C 7,2 C 97 % 1008,4 hPa 0,0 l/m 0 min 0 min 0 W/m 12,9 km/h (3 Bft) 100,00 %
01.11.2018 20:56 8,7 C 7,8 C 7,2 C 97 % 1008,4 hPa 0,0 l/m 0 min 0 min 0 W/m 19,3 km/h (3 Bft) 100,00 %
01.11.2018 20:58 8,7 C 7,8 C 7,2 C 97 % 1008,5 hPa 0,0 l/m 0 min 0 min 0 W/m 6,4 km/h (2 Bft) 100,00 %
01.11.2018 21:00 8,7 C 7,8 C 7,2 C 97 % 1008,4 hPa 0,0 l/m 0 min 0 min 0 W/m 6,4 km/h (2 Bft) 100,00 %
01.11.2018 21:02 8,7 C 7,8 C 7,2 C 97 % 1008,5 hPa 0,0 l/m 0 min 0 min 0 W/m 12,9 km/h (3 Bft) 97,87 %
01.11.2018 21:04 8,7 C 7,8 C 7,2 C 97 % 1008,5 hPa 0,0 l/m 0 min 0 min 0 W/m 9,7 km/h (2 Bft) 97,87 %
01.11.2018 21:08 8,7 C 7,8 C 7,2 C 97 % 1008,5 hPa 0,0 l/m 0 min 0 min 0 W/m 9,7 km/h (2 Bft) 96,81 %
01.11.2018 21:10 8,7 C 7,8 C 7,2 C 97 % 1008,5 hPa 0,0 l/m 0 min 0 min 0 W/m 9,7 km/h (2 Bft) 95,74 %
01.11.2018 21:12 8,7 C 7,8 C 7,2 C 97 % 1008,5 hPa 0,0 l/m 0 min 0 min 0 W/m 12,9 km/h (3 Bft) 97,87 %
01.11.2018 21:14 8,7 C 7,8 C 7,2 C 97 % 1008,6 hPa 0,0 l/m 0 min 0 min 0 W/m 12,9 km/h (3 Bft) 97,83 %
01.11.2018 21:16 8,7 C 7,8 C 7,2 C 97 % 1008,5 hPa 0,0 l/m 0 min 0 min 0 W/m 12,9 km/h (3 Bft) 95,74 %
01.11.2018 21:18 8,7 C 7,8 C 7,2 C 97 % 1008,6 hPa 0,0 l/m 0 min 0 min 0 W/m 12,9 km/h (3 Bft) 95,74 %
01.11.2018 21:20 8,7 C 7,8 C 7,2 C 97 % 1008,6 hPa 0,0 l/m 0 min 0 min 0 W/m 9,7 km/h (2 Bft) 95,74 %
01.11.2018 21:22 8,7 C 7,8 C 7,2 C 97 % 1008,6 hPa 0,0 l/m 0 min 0 min 0 W/m 12,9 km/h (3 Bft) 100,00 %
01.11.2018 21:24 8,7 C 7,8 C 7,2 C 97 % 1008,5 hPa 0,0 l/m 0 min 0 min 0 W/m 12,9 km/h (3 Bft) 97,83 %
01.11.2018 21:26 8,7 C 7,8 C 7,2 C 97 % 1008,5 hPa 0,0 l/m 0 min 0 min 0 W/m 12,9 km/h (3 Bft) 97,87 %
01.11.2018 21:28 8,7 C 7,8 C 7,2 C 97 % 1008,5 hPa 0,0 l/m 0 min 0 min 0 W/m 12,9 km/h (3 Bft) 97,87 %
01.11.2018 21:30 8,7 C 7,8 C 7,2 C 97 % 1008,5 hPa 0,0 l/m 0 min 0 min 0 W/m 12,9 km/h (3 Bft) 95,74 %
01.11.2018 21:32 8,7 C 7,8 C 7,2 C 97 % 1008,6 hPa 0,0 l/m 0 min 0 min 0 W/m 6,4 km/h (2 Bft) 95,74 %
01.11.2018 21:34 8,7 C 7,8 C 7,2 C 97 % 1008,5 hPa 0,0 l/m 0 min 0 min 0 W/m 9,7 km/h (2 Bft) 97,87 %
01.11.2018 21:38 8,7 C 7,8 C 7,2 C 97 % 1008,6 hPa 0,0 l/m 0 min 0 min 0 W/m 9,7 km/h (2 Bft) 96,77 %
01.11.2018 21:40 8,7 C 7,8 C 7,2 C 97 % 1008,5 hPa 0,0 l/m 0 min 0 min 0 W/m 12,9 km/h (3 Bft) 89,36 %
01.11.2018 21:42 8,6 C 7,8 C 7,2 C 97 % 1008,5 hPa 0,0 l/m 0 min 0 min 0 W/m 9,7 km/h (2 Bft) 97,87 %
01.11.2018 21:44 8,7 C 7,8 C 7,2 C 97 % 1008,5 hPa 0,0 l/m 0 min 0 min 0 W/m 12,9 km/h (3 Bft) 97,87 %
01.11.2018 21:46 8,6 C 7,8 C 7,2 C 97 % 1008,6 hPa 0,0 l/m 0 min 0 min 0 W/m 16,1 km/h (3 Bft) 97,83 %
01.11.2018 21:48 8,6 C 7,8 C 7,2 C 97 % 1008,8 hPa 0,0 l/m 0 min 0 min 0 W/m 12,9 km/h (3 Bft) 97,87 %
01.11.2018 21:50 8,6 C 7,8 C 7,2 C 97 % 1008,8 hPa 0,0 l/m 0 min 0 min 0 W/m 12,9 km/h (3 Bft) 97,87 %
01.11.2018 21:52 8,6 C 7,8 C 7,2 C 97 % 1008,8 hPa 0,0 l/m 0 min 0 min 0 W/m 12,9 km/h (3 Bft) 95,74 %
01.11.2018 21:54 8,6 C 7,8 C 7,2 C 97 % 1008,8 hPa 0,0 l/m 0 min 0 min 0 W/m 6,4 km/h (2 Bft) 97,87 %
01.11.2018 21:56 8,6 C 7,8 C 7,2 C 97 % 1008,7 hPa 0,0 l/m 0 min 0 min 0 W/m 9,7 km/h (2 Bft) 97,87 %
01.11.2018 21:58 8,6 C 7,8 C 7,2 C 97 % 1008,8 hPa 0,0 l/m 0 min 0 min 0 W/m 12,9 km/h (3 Bft) 97,87 %
01.11.2018 22:00 8,6 C 7,8 C 7,2 C 97 % 1008,8 hPa 0,0 l/m 0 min 0 min 0 W/m 9,7 km/h (2 Bft) 97,83 %
01.11.2018 22:02 8,6 C 7,8 C 7,2 C 97 % 1008,7 hPa 0,0 l/m 0 min 0 min 0 W/m 12,9 km/h (3 Bft) 100,00 %
01.11.2018 22:04 8,6 C 7,8 C 7,2 C 97 % 1008,6 hPa 0,0 l/m 0 min 0 min 0 W/m 12,9 km/h (3 Bft) 100,00 %
01.11.2018 22:08 8,6 C 7,8 C 7,2 C 97 % 1008,7 hPa 0,0 l/m 0 min 0 min 0 W/m 9,7 km/h (2 Bft) 96,81 %
01.11.2018 22:10 8,6 C 7,8 C 7,2 C 97 % 1008,7 hPa 0,0 l/m 0 min 0 min 0 W/m 9,7 km/h (2 Bft) 95,65 %
01.11.2018 22:12 8,6 C 7,8 C 7,2 C 97 % 1008,7 hPa 0,0 l/m 0 min 0 min 0 W/m 9,7 km/h (2 Bft) 97,87 %
01.11.2018 22:14 8,6 C 7,8 C 7,2 C 97 % 1008,8 hPa 0,0 l/m 0 min 0 min 0 W/m 6,4 km/h (2 Bft) 97,87 %
01.11.2018 22:16 8,6 C 7,8 C 7,2 C 97 % 1008,9 hPa 0,0 l/m 0 min 0 min 0 W/m 12,9 km/h (3 Bft) 97,87 %
01.11.2018 22:18 8,6 C 7,8 C 7,2 C 97 % 1008,8 hPa 0,0 l/m 0 min 0 min 0 W/m 9,7 km/h (2 Bft) 97,87 %
01.11.2018 22:20 8,6 C 7,8 C 7,2 C 97 % 1008,8 hPa 0,0 l/m 0 min 0 min 0 W/m 9,7 km/h (2 Bft) 91,49 %
01.11.2018 22:22 8,6 C 7,8 C 7,2 C 97 % 1008,8 hPa 0,0 l/m 0 min 0 min 0 W/m 12,9 km/h (3 Bft) 97,83 %
01.11.2018 22:24 8,6 C 7,8 C 7,2 C 97 % 1008,8 hPa 0,0 l/m 0 min 0 min 0 W/m 9,7 km/h (2 Bft) 97,87 %
01.11.2018 22:26 8,6 C 7,8 C 7,2 C 97 % 1008,8 hPa 0,0 l/m 0 min 0 min 0 W/m 12,9 km/h (3 Bft) 95,74 %
01.11.2018 22:28 8,6 C 7,8 C 7,2 C 97 % 1008,9 hPa 0,0 l/m 0 min 0 min 0 W/m 12,9 km/h (3 Bft) 97,87 %
01.11.2018 22:30 8,6 C 7,8 C 7,2 C 97 % 1008,9 hPa 0,0 l/m 0 min 0 min 0 W/m 9,7 km/h (2 Bft) 95,74 %
01.11.2018 22:32 8,6 C 7,8 C 7,2 C 97 % 1008,8 hPa 0,0 l/m 0 min 0 min 0 W/m 9,7 km/h (2 Bft) 97,87 %
01.11.2018 22:34 8,6 C 7,8 C 7,2 C 97 % 1008,8 hPa 0,0 l/m 0 min 0 min 0 W/m 12,9 km/h (3 Bft) 95,65 %
01.11.2018 22:38 8,6 C 7,8 C 7,2 C 97 % 1008,9 hPa 0,0 l/m 0 min 0 min 0 W/m 12,9 km/h (3 Bft) 94,68 %
01.11.2018 22:40 8,7 C 7,8 C 7,2 C 97 % 1008,9 hPa 0,0 l/m 0 min 0 min 0 W/m 12,9 km/h (3 Bft) 97,87 %
01.11.2018 22:42 8,7 C 7,8 C 7,2 C 97 % 1008,9 hPa 0,0 l/m 0 min 0 min 0 W/m 9,7 km/h (2 Bft) 95,74 %
01.11.2018 22:44 8,7 C 7,8 C 7,2 C 97 % 1009,0 hPa 0,0 l/m 0 min 0 min 0 W/m 12,9 km/h (3 Bft) 97,87 %
01.11.2018 22:46 8,7 C 7,8 C 7,2 C 97 % 1009,0 hPa 0,0 l/m 0 min 0 min 0 W/m 6,4 km/h (2 Bft) 95,65 %
01.11.2018 22:48 8,7 C 7,8 C 7,8 C 97 % 1009,0 hPa 0,0 l/m 0 min 0 min 0 W/m 3,2 km/h (1 Bft) 97,87 %
01.11.2018 22:50 8,7 C 7,8 C 7,8 C 97 % 1009,1 hPa 0,0 l/m 0 min 0 min 0 W/m 9,7 km/h (2 Bft) 95,74 %
01.11.2018 22:52 8,7 C 7,8 C 7,8 C 97 % 1009,1 hPa 0,0 l/m 0 min 0 min 0 W/m 6,4 km/h (2 Bft) 97,87 %
01.11.2018 22:54 8,7 C 7,8 C 7,8 C 97 % 1009,2 hPa 0,0 l/m 0 min 0 min 0 W/m 9,7 km/h (2 Bft) 93,62 %
01.11.2018 22:56 8,7 C 7,8 C 7,8 C 97 % 1009,2 hPa 0,0 l/m 0 min 0 min 0 W/m 6,4 km/h (2 Bft) 97,87 %
01.11.2018 22:58 8,7 C 7,8 C 7,8 C 97 % 1009,1 hPa 0,0 l/m 0 min 0 min 0 W/m 3,2 km/h (1 Bft) 97,83 %
01.11.2018 23:00 8,7 C 8,3 C 7,8 C 97 % 1009,2 hPa 0,0 l/m 0 min 0 min 0 W/m 6,4 km/h (2 Bft) 97,87 %
01.11.2018 23:02 8,7 C 8,3 C 7,8 C 97 % 1009,3 hPa 0,0 l/m 0 min 0 min 0 W/m 9,7 km/h (2 Bft) 95,74 %
01.11.2018 23:04 8,7 C 8,3 C 7,8 C 97 % 1009,2 hPa 0,0 l/m 0 min 0 min 0 W/m 3,2 km/h (1 Bft) 95,74 %
01.11.2018 23:08 8,7 C 8,3 C 7,8 C 97 % 1009,3 hPa 0,0 l/m 0 min 0 min 0 W/m 6,4 km/h (2 Bft) 97,85 %
01.11.2018 23:10 8,7 C 8,3 C 7,8 C 97 % 1009,3 hPa 0,0 l/m 0 min 0 min 0 W/m 6,4 km/h (2 Bft) 97,87 %
01.11.2018 23:12 8,8 C 8,3 C 7,8 C 97 % 1009,3 hPa 0,0 l/m 0 min 0 min 0 W/m 9,7 km/h (2 Bft) 97,87 %
01.11.2018 23:14 8,8 C 8,3 C 7,8 C 97 % 1009,4 hPa 0,0 l/m 0 min 0 min 0 W/m 6,4 km/h (2 Bft) 95,74 %
01.11.2018 23:16 8,8 C 8,3 C 7,8 C 97 % 1009,3 hPa 0,0 l/m 0 min 0 min 0 W/m 3,2 km/h (1 Bft) 97,87 %
01.11.2018 23:18 8,8 C 8,3 C 7,8 C 97 % 1009,4 hPa 0,0 l/m 0 min 0 min 0 W/m 6,4 km/h (2 Bft) 95,74 %
01.11.2018 23:20 8,8 C 8,3 C 7,8 C 97 % 1009,4 hPa 0,0 l/m 0 min 0 min 0 W/m 3,2 km/h (1 Bft) 97,83 %
01.11.2018 23:22 8,8 C 8,3 C 7,8 C 97 % 1009,4 hPa 0,0 l/m 0 min 0 min 0 W/m 6,4 km/h (2 Bft) 97,87 %
01.11.2018 23:24 8,8 C 8,3 C 7,8 C 97 % 1009,4 hPa 0,0 l/m 0 min 0 min 0 W/m 6,4 km/h (2 Bft) 95,74 %
01.11.2018 23:26 8,9 C 8,3 C 7,8 C 97 % 1009,4 hPa 0,0 l/m 0 min 0 min 0 W/m 3,2 km/h (1 Bft) 97,87 %
01.11.2018 23:28 8,9 C 8,3 C 7,8 C 97 % 1009,4 hPa 0,0 l/m 0 min 0 min 0 W/m 3,2 km/h (1 Bft) 97,87 %
01.11.2018 23:30 8,9 C 8,3 C 7,8 C 97 % 1009,4 hPa 0,0 l/m 0 min 0 min 0 W/m 6,4 km/h (2 Bft) 97,87 %
01.11.2018 23:32 8,9 C 8,3 C 7,8 C 97 % 1009,4 hPa 0,0 l/m 0 min 0 min 0 W/m 6,4 km/h (2 Bft) 97,83 %
01.11.2018 23:34 8,9 C 8,3 C 7,8 C 97 % 1009,5 hPa 0,0 l/m 0 min 0 min 0 W/m 6,4 km/h (2 Bft) 97,87 %
01.11.2018 23:38 9,0 C 8,3 C 7,8 C 97 % 1009,4 hPa 0,0 l/m 0 min 0 min 0 W/m 3,2 km/h (1 Bft) 98,94 %
01.11.2018 23:40 9,0 C 8,3 C 7,8 C 97 % 1009,5 hPa 0,0 l/m 0 min 0 min 0 W/m 3,2 km/h (1 Bft) 100,00 %
01.11.2018 23:42 9,0 C 8,3 C 7,8 C 97 % 1009,5 hPa 0,0 l/m 0 min 0 min 0 W/m 3,2 km/h (1 Bft) 97,87 %
01.11.2018 23:44 9,1 C 8,3 C 7,8 C 97 % 1009,5 hPa 0,0 l/m 0 min 0 min 0 W/m 3,2 km/h (1 Bft) 100,00 %
01.11.2018 23:46 9,1 C 8,3 C 7,8 C 97 % 1009,5 hPa 0,0 l/m 0 min 0 min 0 W/m 12,9 km/h (3 Bft) 100,00 %
01.11.2018 23:48 9,1 C 8,3 C 7,8 C 97 % 1009,5 hPa 0,0 l/m 0 min 0 min 0 W/m 3,2 km/h (1 Bft) 100,00 %
01.11.2018 23:50 9,1 C 8,3 C 7,8 C 98 % 1009,5 hPa 0,0 l/m 0 min 0 min 0 W/m 3,2 km/h (1 Bft) 100,00 %
01.11.2018 23:52 9,1 C 8,3 C 7,8 C 98 % 1009,5 hPa 0,0 l/m 0 min 0 min 0 W/m 3,2 km/h (1 Bft) 100,00 %
01.11.2018 23:54 9,1 C 8,3 C 7,8 C 98 % 1009,5 hPa 0,0 l/m 0 min 0 min 0 W/m 3,2 km/h (1 Bft) 100,00 %
01.11.2018 23:56 9,1 C 8,3 C 7,8 C 98 % 1009,5 hPa 0,0 l/m 0 min 0 min 0 W/m 3,2 km/h (1 Bft) 100,00 %
01.11.2018 23:58 9,1 C 8,3 C 7,8 C 98 % 1009,6 hPa 0,0 l/m 0 min 0 min 0 W/m 6,4 km/h (2 Bft) 97,87 %
_ Min-Zeit 07:40 00:00 00:00 12:26 17:54 - - - - 00:00 15:40
Minimum _ 7,4 C 6,7 C 6,1 C 81 % 1007,4 hPa - - - - 0,0 km/h (0 Bft) 61,70 %
_ Max-Zeit 14:00 10:10 11:24 23:50 00:16 15:22 00:00 15:08 10:08 04:18 00:00
Maximum _ 10,3 C 10,0 C 8,9 C 98 % 1010,2 hPa 0,2 l/m 0 min 4 min 130 W/m 19,3 km/h
SO (3 Bft)
100,00 %
Durchschnitt _ 8,7 C 8,1 C 7,4 C 89 % 1008,5 hPa #3,0 l/m #0 min. #3:52 h 66 W/m 9,6 km/h (2 Bft) 96,79 %
© 2018 W. Hausmann